Time,TemperatureF,DewpointF,PressureIn,WindDirection,WindDirectionDegrees,WindSpeedMPH,WindSpeedGustMPH,Humidity,HourlyPrecipIn,Conditions,Clouds,dailyrainin,SoftwareType,DateUTC
2013-06-11 00:00:00,59.7,55.9,29.80,ESE,112,10.7,10.7,87,0.02,,,0.00,WUHU21623XXSP,2013-06-11 04:00:00,
2013-06-11 00:02:00,59.7,55.9,29.80,ESE,112,0.0,10.7,87,0.02,,,0.00,WUHU21623XXSP,2013-06-11 04:02:00,
2013-06-11 00:04:00,59.7,55.9,29.79,SSE,157,3.6,10.7,87,0.02,,,0.00,WUHU21623XXSP,2013-06-11 04:04:00,
2013-06-11 00:06:00,59.7,55.9,29.80,South,180,6.3,10.7,87,0.02,,,0.00,WUHU21623XXSP,2013-06-11 04:06:00,
2013-06-11 00:08:00,59.7,55.9,29.79,East,90,1.1,10.7,87,0.02,,,0.00,WUHU21623XXSP,2013-06-11 04:08:00,
2013-06-11 00:11:00,59.7,55.9,29.79,ESE,112,0.0,6.3,87,0.02,,,0.00,WUHU21623XXSP,2013-06-11 04:11:00,
2013-06-11 00:13:00,59.7,55.9,29.79,SE,135,0.0,6.3,87,0.02,,,0.00,WUHU21623XXSP,2013-06-11 04:13:00,
2013-06-11 00:15:00,59.7,55.9,29.79,SSE,157,2.9,6.3,87,0.02,,,0.00,WUHU21623XXSP,2013-06-11 04:15:00,
2013-06-11 00:17:00,59.7,55.9,29.79,SSE,157,2.9,2.9,87,0.02,,,0.00,WUHU21623XXSP,2013-06-11 04:17:00,
2013-06-11 00:19:00,59.5,55.7,29.79,East,90,2.7,2.9,87,0.02,,,0.00,WUHU21623XXSP,2013-06-11 04:19:00,
2013-06-11 00:21:00,59.5,55.7,29.79,ESE,112,0.0,2.9,87,0.02,,,0.00,WUHU21623XXSP,2013-06-11 04:21:00,
2013-06-11 00:24:00,59.5,55.7,29.79,SSE,157,1.6,2.9,87,0.02,,,0.00,WUHU21623XXSP,2013-06-11 04:24:00,
2013-06-11 00:26:00,59.5,55.7,29.79,South,180,1.1,2.9,87,0.02,,,0.00,WUHU21623XXSP,2013-06-11 04:26:00,
2013-06-11 00:28:00,59.5,55.7,29.79,South,180,0.0,2.7,87,0.00,,,0.00,WUHU21623XXSP,2013-06-11 04:28:00,
2013-06-11 00:30:00,59.5,55.7,29.79,East,90,10.3,10.3,87,0.00,,,0.00,WUHU21623XXSP,2013-06-11 04:30:00,
2013-06-11 00:32:00,59.5,55.7,29.79,South,180,7.2,10.3,87,0.00,,,0.00,WUHU21623XXSP,2013-06-11 04:32:00,
2013-06-11 00:34:00,59.5,55.7,29.79,SE,135,0.7,10.3,87,0.00,,,0.00,WUHU21623XXSP,2013-06-11 04:34:00,
2013-06-11 00:36:00,59.5,55.7,29.79,ESE,112,0.2,10.3,87,0.00,,,0.00,WUHU21623XXSP,2013-06-11 04:36:00,
2013-06-11 00:38:00,59.5,55.7,29.79,SE,135,7.2,10.3,87,0.00,,,0.00,WUHU21623XXSP,2013-06-11 04:38:00,
2013-06-11 00:40:00,59.5,55.7,29.78,East,90,7.8,7.8,87,0.00,,,0.00,WUHU21623XXSP,2013-06-11 04:40:00,
2013-06-11 00:43:00,59.5,55.7,29.78,SE,135,6.0,7.8,87,0.00,,,0.00,WUHU21623XXSP,2013-06-11 04:43:00,
2013-06-11 00:45:00,59.4,55.5,29.78,NE,45,3.8,7.8,87,0.00,,,0.00,WUHU21623XXSP,2013-06-11 04:45:00,
2013-06-11 00:47:00,59.4,55.5,29.78,SE,135,2.2,7.8,87,0.00,,,0.00,WUHU21623XXSP,2013-06-11 04:47:00,
2013-06-11 00:49:00,59.4,55.5,29.78,South,180,3.6,7.8,87,0.00,,,0.00,WUHU21623XXSP,2013-06-11 04:49:00,
2013-06-11 00:51:00,59.4,55.5,29.78,ESE,112,0.0,6.0,87,0.00,,,0.00,WUHU21623XXSP,2013-06-11 04:51:00,
2013-06-11 00:53:00,59.4,55.5,29.78,ENE,67,3.1,3.8,87,0.00,,,0.00,WUHU21623XXSP,2013-06-11 04:53:00,
2013-06-11 00:55:00,59.4,55.5,29.78,East,90,2.5,3.6,87,0.00,,,0.00,WUHU21623XXSP,2013-06-11 04:55:00,
2013-06-11 00:58:00,59.2,55.3,29.78,ESE,112,0.0,3.6,87,0.00,,,0.00,WUHU21623XXSP,2013-06-11 04:58:00,
2013-06-11 01:00:00,59.2,55.3,29.78,East,90,0.0,3.1,87,0.00,,,0.00,WUHU21623XXSP,2013-06-11 05:00:00,
2013-06-11 01:02:00,59.2,55.3,29.77,SSE,157,2.7,3.1,87,0.00,,,0.00,WUHU21623XXSP,2013-06-11 05:02:00,
2013-06-11 01:04:00,59.2,55.3,29.77,SSE,157,0.0,2.7,87,0.00,,,0.00,WUHU21623XXSP,2013-06-11 05:04:00,
2013-06-11 01:06:00,59.0,55.1,29.77,East,90,6.7,6.7,87,0.00,,,0.00,WUHU21623XXSP,2013-06-11 05:06:00,
2013-06-11 01:08:00,59.0,55.1,29.77,ESE,112,3.1,6.7,87,0.00,,,0.00,WUHU21623XXSP,2013-06-11 05:08:00,
2013-06-11 01:10:00,58.8,55.0,29.77,SE,135,2.5,6.7,87,0.00,,,0.00,WUHU21623XXSP,2013-06-11 05:10:00,
2013-06-11 01:13:00,59.0,55.1,29.77,South,180,4.3,6.7,87,0.00,,,0.00,WUHU21623XXSP,2013-06-11 05:13:00,
2013-06-11 01:15:00,58.8,55.0,29.77,ESE,112,0.4,6.7,87,0.00,,,0.00,WUHU21623XXSP,2013-06-11 05:15:00,
2013-06-11 01:17:00,59.0,55.1,29.76,SSE,157,5.1,5.1,87,0.00,,,0.00,WUHU21623XXSP,2013-06-11 05:17:00,
2013-06-11 01:19:00,59.0,55.1,29.77,SSE,157,0.9,5.1,87,0.00,,,0.00,WUHU21623XXSP,2013-06-11 05:19:00,
2013-06-11 01:21:00,59.2,55.3,29.76,SSE,157,5.4,5.4,87,0.00,,,0.00,WUHU21623XXSP,2013-06-11 05:21:00,
2013-06-11 01:23:00,59.0,55.1,29.76,South,180,3.8,5.4,87,0.00,,,0.00,WUHU21623XXSP,2013-06-11 05:23:00,
2013-06-11 01:25:00,59.2,55.3,29.76,SSE,157,2.5,5.4,87,0.00,,,0.00,WUHU21623XXSP,2013-06-11 05:25:00,
2013-06-11 01:28:00,59.2,55.3,29.76,SE,135,6.9,6.9,87,0.00,,,0.00,WUHU21623XXSP,2013-06-11 05:28:00,
2013-06-11 01:30:00,59.2,55.3,29.76,East,90,3.8,6.9,87,0.00,,,0.00,WUHU21623XXSP,2013-06-11 05:30:00,
2013-06-11 01:32:00,59.0,55.1,29.76,ESE,112,0.0,6.9,87,0.00,,,0.00,WUHU21623XXSP,2013-06-11 05:32:00,
2013-06-11 01:34:00,59.0,55.1,29.76,East,90,2.5,6.9,87,0.00,,,0.00,WUHU21623XXSP,2013-06-11 05:34:00,
2013-06-11 01:36:00,59.0,55.1,29.76,ESE,112,1.6,6.9,87,0.00,,,0.00,WUHU21623XXSP,2013-06-11 05:36:00,
2013-06-11 01:38:00,58.8,55.0,29.76,ESE,112,0.0,3.8,87,0.00,,,0.00,WUHU21623XXSP,2013-06-11 05:38:00,
2013-06-11 01:40:00,58.8,55.0,29.76,SE,135,0.0,2.5,87,0.00,,,0.00,WUHU21623XXSP,2013-06-11 05:40:00,
2013-06-11 01:43:00,58.8,55.0,29.76,ESE,112,0.0,2.5,87,0.00,,,0.00,WUHU21623XXSP,2013-06-11 05:43:00,
2013-06-11 01:45:00,58.8,55.0,29.76,SE,135,0.0,1.6,87,0.00,,,0.00,WUHU21623XXSP,2013-06-11 05:45:00,
2013-06-11 01:47:00,58.8,55.0,29.76,ESE,112,0.0,0.0,87,0.00,,,0.00,WUHU21623XXSP,2013-06-11 05:47:00,
2013-06-11 01:49:00,58.8,55.0,29.76,ENE,67,0.0,0.0,87,0.00,,,0.00,WUHU21623XXSP,2013-06-11 05:49:00,
2013-06-11 01:51:00,58.8,55.0,29.75,SSE,157,1.1,1.1,87,0.00,,,0.00,WUHU21623XXSP,2013-06-11 05:51:00,
2013-06-11 01:53:00,58.8,55.0,29.75,ESE,112,0.0,1.1,87,0.00,,,0.00,WUHU21623XXSP,2013-06-11 05:53:00,
2013-06-11 01:55:00,58.8,55.0,29.75,SSE,157,1.1,1.1,87,0.00,,,0.00,WUHU21623XXSP,2013-06-11 05:55:00,
2013-06-11 01:58:00,58.8,55.0,29.75,SE,135,12.5,12.5,87,0.00,,,0.00,WUHU21623XXSP,2013-06-11 05:58:00,
2013-06-11 02:00:00,58.8,55.0,29.75,SSE,157,0.0,12.5,87,0.00,,,0.00,WUHU21623XXSP,2013-06-11 06:00:00,
2013-06-11 02:02:00,58.8,55.0,29.75,ESE,112,4.3,12.5,87,0.00,,,0.00,WUHU21623XXSP,2013-06-11 06:02:00,
2013-06-11 02:04:00,58.8,55.0,29.74,ESE,112,0.0,12.5,87,0.00,,,0.00,WUHU21623XXSP,2013-06-11 06:04:00,
2013-06-11 02:06:00,58.8,55.0,29.75,ESE,112,6.5,12.5,87,0.00,,,0.00,WUHU21623XXSP,2013-06-11 06:06:00,
2013-06-11 02:08:00,58.8,55.0,29.75,ESE,112,0.0,6.5,87,0.00,,,0.00,WUHU21623XXSP,2013-06-11 06:08:00,
2013-06-11 02:10:00,58.8,55.0,29.75,SSE,157,0.0,6.5,87,0.00,,,0.00,WUHU21623XXSP,2013-06-11 06:10:00,
2013-06-11 02:13:00,58.8,55.0,29.75,SE,135,0.9,6.5,87,0.00,,,0.00,WUHU21623XXSP,2013-06-11 06:13:00,
2013-06-11 02:15:00,58.8,55.0,29.74,SSE,157,0.0,6.5,87,0.00,,,0.00,WUHU21623XXSP,2013-06-11 06:15:00,
2013-06-11 02:17:00,58.8,55.0,29.74,SE,135,0.9,0.9,87,0.00,,,0.00,WUHU21623XXSP,2013-06-11 06:17:00,
2013-06-11 02:19:00,58.8,55.0,29.74,East,90,0.0,0.9,87,0.00,,,0.00,WUHU21623XXSP,2013-06-11 06:19:00,
2013-06-11 02:21:00,58.8,55.0,29.74,SSE,157,4.5,4.5,87,0.00,,,0.00,WUHU21623XXSP,2013-06-11 06:21:00,
2013-06-11 02:23:00,58.8,55.0,29.74,SE,135,4.7,4.7,87,0.00,,,0.00,WUHU21623XXSP,2013-06-11 06:23:00,
2013-06-11 02:25:00,58.8,55.0,29.74,ESE,112,1.3,4.7,87,0.00,,,0.00,WUHU21623XXSP,2013-06-11 06:25:00,
2013-06-11 02:28:00,58.8,55.0,29.74,ESE,112,0.0,4.7,87,0.00,,,0.00,WUHU21623XXSP,2013-06-11 06:28:00,
2013-06-11 02:30:00,58.8,55.0,29.73,ESE,112,7.2,7.2,87,0.00,,,0.00,WUHU21623XXSP,2013-06-11 06:30:00,
2013-06-11 02:32:00,58.8,55.0,29.73,ESE,112,2.7,7.2,87,0.00,,,0.00,WUHU21623XXSP,2013-06-11 06:32:00,
2013-06-11 02:34:00,58.8,55.0,29.73,SE,135,0.0,7.2,87,0.00,,,0.00,WUHU21623XXSP,2013-06-11 06:34:00,
2013-06-11 02:36:00,58.8,55.0,29.73,SE,135,0.0,7.2,87,0.00,,,0.00,WUHU21623XXSP,2013-06-11 06:36:00,
2013-06-11 02:38:00,58.8,55.0,29.73,ESE,112,0.0,7.2,87,0.00,,,0.00,WUHU21623XXSP,2013-06-11 06:38:00,
2013-06-11 02:40:00,58.8,55.0,29.73,SE,135,6.0,6.0,87,0.00,,,0.00,WUHU21623XXSP,2013-06-11 06:40:00,
2013-06-11 02:42:00,58.8,55.0,29.73,East,90,7.6,7.6,87,0.00,,,0.00,WUHU21623XXSP,2013-06-11 06:42:00,
2013-06-11 02:45:00,58.8,55.0,29.73,South,180,0.0,7.6,87,0.00,,,0.00,WUHU21623XXSP,2013-06-11 06:45:00,
2013-06-11 02:47:00,58.8,55.0,29.73,ESE,112,7.4,7.6,87,0.00,,,0.00,WUHU21623XXSP,2013-06-11 06:47:00,
2013-06-11 02:49:00,58.8,55.0,29.73,ESE,112,7.4,7.6,87,0.00,,,0.00,WUHU21623XXSP,2013-06-11 06:49:00,
2013-06-11 02:51:00,58.8,55.0,29.73,South,180,0.0,7.6,87,0.00,,,0.00,WUHU21623XXSP,2013-06-11 06:51:00,
2013-06-11 02:53:00,58.8,55.0,29.73,SE,135,0.0,7.4,87,0.00,,,0.00,WUHU21623XXSP,2013-06-11 06:53:00,
2013-06-11 02:55:00,58.8,55.0,29.73,SE,135,0.0,7.4,87,0.00,,,0.00,WUHU21623XXSP,2013-06-11 06:55:00,
2013-06-11 02:58:00,58.8,55.0,29.72,SE,135,0.0,7.4,87,0.00,,,0.00,WUHU21623XXSP,2013-06-11 06:58:00,
2013-06-11 03:00:00,58.8,55.0,29.72,SE,135,0.0,0.0,87,0.00,,,0.00,WUHU21623XXSP,2013-06-11 07:00:00,
2013-06-11 03:02:00,58.8,55.0,29.72,ESE,112,1.6,1.6,87,0.02,,,0.00,WUHU21623XXSP,2013-06-11 07:02:00,
2013-06-11 03:04:00,58.8,55.0,29.72,ESE,112,0.0,1.6,87,0.02,,,0.02,WUHU21623XXSP,2013-06-11 07:04:00,
2013-06-11 03:06:00,58.8,55.0,29.72,SE,135,0.0,1.6,87,0.02,,,0.02,WUHU21623XXSP,2013-06-11 07:06:00,
2013-06-11 03:08:00,58.8,55.0,29.72,ESE,112,0.9,1.6,87,0.02,,,0.02,WUHU21623XXSP,2013-06-11 07:08:00,
2013-06-11 03:10:00,58.8,55.0,29.72,East,90,0.0,1.6,87,0.02,,,0.02,WUHU21623XXSP,2013-06-11 07:10:00,
2013-06-11 03:12:00,58.8,55.0,29.71,East,90,0.0,0.9,87,0.02,,,0.02,WUHU21623XXSP,2013-06-11 07:12:00,
2013-06-11 03:15:00,58.8,55.0,29.71,ESE,112,0.0,0.9,87,0.02,,,0.02,WUHU21623XXSP,2013-06-11 07:15:00,
2013-06-11 03:17:00,58.6,54.8,29.71,ESE,112,0.7,0.9,87,0.02,,,0.02,WUHU21623XXSP,2013-06-11 07:17:00,
2013-06-11 03:19:00,58.6,54.8,29.71,SE,135,3.8,3.8,87,0.04,,,0.02,WUHU21623XXSP,2013-06-11 07:19:00,
2013-06-11 03:21:00,58.8,55.0,29.71,ESE,112,0.0,3.8,87,0.04,,,0.04,WUHU21623XXSP,2013-06-11 07:21:00,
2013-06-11 03:23:00,58.8,55.0,29.71,South,180,0.0,3.8,87,0.04,,,0.04,WUHU21623XXSP,2013-06-11 07:23:00,
2013-06-11 03:25:00,58.8,55.0,29.71,SE,135,0.0,3.8,87,0.04,,,0.04,WUHU21623XXSP,2013-06-11 07:25:00,
2013-06-11 03:27:00,58.8,55.0,29.71,SE,135,0.0,3.8,87,0.04,,,0.04,WUHU21623XXSP,2013-06-11 07:27:00,
2013-06-11 03:30:00,58.8,55.0,29.71,ENE,67,4.5,4.5,87,0.04,,,0.04,WUHU21623XXSP,2013-06-11 07:30:00,
2013-06-11 03:32:00,58.8,55.0,29.71,SSE,157,0.0,4.5,87,0.04,,,0.04,WUHU21623XXSP,2013-06-11 07:32:00,
2013-06-11 03:34:00,58.8,55.0,29.71,SSE,157,0.0,4.5,87,0.04,,,0.04,WUHU21623XXSP,2013-06-11 07:34:00,
2013-06-11 03:36:00,58.8,55.0,29.71,NW,315,0.0,4.5,87,0.06,,,0.04,WUHU21623XXSP,2013-06-11 07:36:00,
2013-06-11 03:38:00,58.6,55.1,29.71,NW,315,0.0,4.5,88,0.06,,,0.06,WUHU21623XXSP,2013-06-11 07:38:00,
2013-06-11 03:40:00,58.6,54.8,29.71,NNW,337,0.0,0.0,87,0.06,,,0.06,WUHU21623XXSP,2013-06-11 07:40:00,
2013-06-11 03:42:00,58.6,54.8,29.71,ENE,67,0.0,0.0,87,0.06,,,0.06,WUHU21623XXSP,2013-06-11 07:42:00,
2013-06-11 03:45:00,58.6,54.8,29.71,ENE,67,0.0,0.0,87,0.06,,,0.06,WUHU21623XXSP,2013-06-11 07:45:00,
2013-06-11 03:47:00,58.6,54.8,29.71,ENE,67,0.0,0.0,87,0.06,,,0.06,WUHU21623XXSP,2013-06-11 07:47:00,
2013-06-11 03:49:00,58.6,54.8,29.71,ENE,67,0.0,0.0,87,0.06,,,0.06,WUHU21623XXSP,2013-06-11 07:49:00,
2013-06-11 03:51:00,58.6,54.8,29.71,ENE,67,0.0,0.0,87,0.06,,,0.06,WUHU21623XXSP,2013-06-11 07:51:00,
2013-06-11 03:53:00,58.6,55.1,29.71,ENE,67,0.0,0.0,88,0.08,,,0.06,WUHU21623XXSP,2013-06-11 07:53:00,
2013-06-11 03:55:00,58.6,55.1,29.71,SSE,157,0.7,0.7,88,0.08,,,0.08,WUHU21623XXSP,2013-06-11 07:55:00,
2013-06-11 03:57:00,58.6,55.1,29.71,SE,135,0.0,0.7,88,0.08,,,0.08,WUHU21623XXSP,2013-06-11 07:57:00,
2013-06-11 04:00:00,58.6,55.1,29.71,ESE,112,2.2,2.2,88,0.06,,,0.08,WUHU21623XXSP,2013-06-11 08:00:00,
2013-06-11 04:02:00,58.6,55.1,29.71,ESE,112,0.0,2.2,88,0.08,,,0.08,WUHU21623XXSP,2013-06-11 08:02:00,
2013-06-11 04:04:00,58.6,55.1,29.71,ESE,112,0.0,2.2,88,0.08,,,0.10,WUHU21623XXSP,2013-06-11 08:04:00,
2013-06-11 04:06:00,58.6,55.1,29.71,SE,135,0.0,2.2,88,0.08,,,0.10,WUHU21623XXSP,2013-06-11 08:06:00,
2013-06-11 04:08:00,58.6,55.1,29.71,SE,135,0.0,2.2,88,0.08,,,0.10,WUHU21623XXSP,2013-06-11 08:08:00,
2013-06-11 04:10:00,58.5,54.9,29.71,SE,135,0.0,0.0,88,0.10,,,0.10,WUHU21623XXSP,2013-06-11 08:10:00,
2013-06-11 04:12:00,58.5,54.9,29.71,SE,135,0.0,0.0,88,0.10,,,0.12,WUHU21623XXSP,2013-06-11 08:12:00,
2013-06-11 04:15:00,58.5,54.9,29.71,SE,135,0.0,0.0,88,0.10,,,0.12,WUHU21623XXSP,2013-06-11 08:15:00,
2013-06-11 04:17:00,58.5,54.9,29.71,SE,135,0.0,0.0,88,0.08,,,0.12,WUHU21623XXSP,2013-06-11 08:17:00,
2013-06-11 04:19:00,58.5,54.9,29.71,SE,135,0.0,0.0,88,0.10,,,0.12,WUHU21623XXSP,2013-06-11 08:19:00,
2013-06-11 04:21:00,58.5,54.9,29.71,SE,135,2.2,2.2,88,0.10,,,0.14,WUHU21623XXSP,2013-06-11 08:21:00,
2013-06-11 04:23:00,58.5,54.9,29.71,SE,135,0.0,2.2,88,0.10,,,0.14,WUHU21623XXSP,2013-06-11 08:23:00,
2013-06-11 04:25:00,58.3,54.8,29.71,SE,135,0.0,2.2,88,0.10,,,0.14,WUHU21623XXSP,2013-06-11 08:25:00,
2013-06-11 04:27:00,58.3,54.8,29.71,SSE,157,0.0,2.2,88,0.10,,,0.14,WUHU21623XXSP,2013-06-11 08:27:00,
2013-06-11 04:30:00,58.3,54.8,29.71,SSE,157,2.2,2.2,88,0.10,,,0.14,WUHU21623XXSP,2013-06-11 08:30:00,
2013-06-11 04:32:00,58.3,54.8,29.71,SSE,157,0.0,2.2,88,0.10,,,0.14,WUHU21623XXSP,2013-06-11 08:32:00,
2013-06-11 04:34:00,58.3,54.8,29.71,SSE,157,0.0,2.2,88,0.10,,,0.14,WUHU21623XXSP,2013-06-11 08:34:00,
2013-06-11 04:36:00,58.3,54.8,29.71,SSE,157,0.0,2.2,88,0.10,,,0.14,WUHU21623XXSP,2013-06-11 08:36:00,
2013-06-11 04:38:00,58.3,54.8,29.71,ESE,112,0.0,2.2,88,0.10,,,0.16,WUHU21623XXSP,2013-06-11 08:38:00,
2013-06-11 04:40:00,58.3,54.8,29.71,ESE,112,0.0,0.0,88,0.10,,,0.16,WUHU21623XXSP,2013-06-11 08:40:00,
2013-06-11 04:42:00,58.3,54.8,29.71,ESE,112,0.0,0.0,88,0.10,,,0.16,WUHU21623XXSP,2013-06-11 08:42:00,
2013-06-11 04:45:00,58.3,54.8,29.71,ESE,112,0.0,0.0,88,0.10,,,0.16,WUHU21623XXSP,2013-06-11 08:45:00,
2013-06-11 04:47:00,58.3,54.8,29.71,ESE,112,0.0,0.0,88,0.10,,,0.16,WUHU21623XXSP,2013-06-11 08:47:00,
2013-06-11 04:49:00,58.3,54.8,29.71,ESE,112,0.0,0.0,88,0.10,,,0.16,WUHU21623XXSP,2013-06-11 08:49:00,
2013-06-11 04:51:00,58.3,54.8,29.71,ESE,112,0.0,0.0,88,0.08,,,0.16,WUHU21623XXSP,2013-06-11 08:51:00,
2013-06-11 04:53:00,58.3,54.8,29.71,ESE,112,0.0,0.0,88,0.08,,,0.16,WUHU21623XXSP,2013-06-11 08:53:00,
2013-06-11 04:55:00,58.1,54.6,29.70,ESE,112,0.0,0.0,88,0.08,,,0.16,WUHU21623XXSP,2013-06-11 08:55:00,
2013-06-11 04:57:00,58.3,54.8,29.71,ESE,112,0.0,0.0,88,0.08,,,0.16,WUHU21623XXSP,2013-06-11 08:57:00,
2013-06-11 04:59:00,58.3,54.8,29.71,ESE,112,0.0,0.0,88,0.06,,,0.16,WUHU21623XXSP,2013-06-11 08:59:00,
2013-06-11 05:02:00,58.3,54.8,29.70,ESE,112,0.0,0.0,88,0.06,,,0.16,WUHU21623XXSP,2013-06-11 09:02:00,
2013-06-11 05:04:00,58.3,54.8,29.70,ESE,112,0.0,0.0,88,0.06,,,0.16,WUHU21623XXSP,2013-06-11 09:04:00,
2013-06-11 05:06:00,58.1,54.6,29.70,ESE,112,0.0,0.0,88,0.06,,,0.16,WUHU21623XXSP,2013-06-11 09:06:00,
2013-06-11 05:08:00,58.1,54.6,29.70,ESE,112,0.0,0.0,88,0.04,,,0.16,WUHU21623XXSP,2013-06-11 09:08:00,
2013-06-11 05:10:00,58.1,54.6,29.70,ESE,112,0.0,0.0,88,0.04,,,0.16,WUHU21623XXSP,2013-06-11 09:10:00,
2013-06-11 05:12:00,58.1,54.6,29.70,South,180,0.0,0.0,88,0.04,,,0.16,WUHU21623XXSP,2013-06-11 09:12:00,
2013-06-11 05:14:00,58.1,54.6,29.70,South,180,0.0,0.0,88,0.04,,,0.16,WUHU21623XXSP,2013-06-11 09:14:00,
2013-06-11 05:17:00,58.3,54.8,29.70,SSE,157,0.0,0.0,88,0.02,,,0.16,WUHU21623XXSP,2013-06-11 09:17:00,
2013-06-11 05:19:00,58.3,54.8,29.70,SSE,157,0.0,0.0,88,0.02,,,0.16,WUHU21623XXSP,2013-06-11 09:19:00,
2013-06-11 05:21:00,58.1,54.6,29.70,SSE,157,0.0,0.0,88,0.02,,,0.16,WUHU21623XXSP,2013-06-11 09:21:00,
2013-06-11 05:23:00,58.1,54.6,29.70,SSE,157,0.0,0.0,88,0.02,,,0.16,WUHU21623XXSP,2013-06-11 09:23:00,
2013-06-11 05:25:00,58.1,54.6,29.70,NNE,22,0.0,0.0,88,0.02,,,0.16,WUHU21623XXSP,2013-06-11 09:25:00,
2013-06-11 05:27:00,58.1,54.6,29.70,ESE,112,2.2,2.2,88,0.02,,,0.16,WUHU21623XXSP,2013-06-11 09:27:00,
2013-06-11 05:30:00,58.1,54.6,29.70,SE,135,0.0,2.2,88,0.02,,,0.16,WUHU21623XXSP,2013-06-11 09:30:00,
2013-06-11 05:32:00,58.1,54.6,29.70,ESE,112,0.0,2.2,88,0.02,,,0.16,WUHU21623XXSP,2013-06-11 09:32:00,
2013-06-11 05:34:00,58.3,54.8,29.70,ESE,112,0.0,2.2,88,0.02,,,0.16,WUHU21623XXSP,2013-06-11 09:34:00,
2013-06-11 05:36:00,58.1,54.6,29.70,ESE,112,0.0,2.2,88,0.00,,,0.16,WUHU21623XXSP,2013-06-11 09:36:00,
2013-06-11 05:38:00,58.1,54.6,29.70,ESE,112,0.0,0.0,88,0.00,,,0.16,WUHU21623XXSP,2013-06-11 09:38:00,
2013-06-11 05:40:00,57.9,54.4,29.70,South,180,0.0,0.0,88,0.00,,,0.16,WUHU21623XXSP,2013-06-11 09:40:00,
2013-06-11 05:42:00,58.1,54.6,29.70,South,180,0.0,0.0,88,0.00,,,0.16,WUHU21623XXSP,2013-06-11 09:42:00,
2013-06-11 05:44:00,57.9,54.4,29.70,SSE,157,3.6,3.6,88,0.00,,,0.16,WUHU21623XXSP,2013-06-11 09:44:00,
2013-06-11 05:47:00,58.1,54.6,29.70,SE,135,2.2,3.6,88,0.00,,,0.16,WUHU21623XXSP,2013-06-11 09:47:00,
2013-06-11 05:49:00,58.1,54.6,29.70,SE,135,2.2,3.6,88,0.00,,,0.16,WUHU21623XXSP,2013-06-11 09:49:00,
2013-06-11 05:51:00,58.1,54.6,29.70,SE,135,0.0,3.6,88,0.00,,,0.16,WUHU21623XXSP,2013-06-11 09:51:00,
2013-06-11 05:53:00,58.1,54.6,29.70,East,90,0.0,3.6,88,0.00,,,0.16,WUHU21623XXSP,2013-06-11 09:53:00,
2013-06-11 05:55:00,58.1,54.6,29.70,East,90,0.0,2.2,88,0.00,,,0.16,WUHU21623XXSP,2013-06-11 09:55:00,
2013-06-11 05:57:00,58.1,54.6,29.70,SSE,157,5.6,5.6,88,0.00,,,0.16,WUHU21623XXSP,2013-06-11 09:57:00,
2013-06-11 05:59:00,58.1,54.6,29.70,SSE,157,2.0,5.6,88,0.00,,,0.16,WUHU21623XXSP,2013-06-11 09:59:00,
2013-06-11 06:02:00,58.1,54.6,29.70,SSE,157,6.0,6.0,88,0.00,,,0.16,WUHU21623XXSP,2013-06-11 10:02:00,
2013-06-11 06:04:00,58.1,54.6,29.70,SSE,157,0.0,6.0,88,0.00,,,0.16,WUHU21623XXSP,2013-06-11 10:04:00,
2013-06-11 06:06:00,58.3,54.8,29.70,SSE,157,0.0,6.0,88,0.00,,,0.16,WUHU21623XXSP,2013-06-11 10:06:00,
2013-06-11 06:08:00,58.3,54.8,29.70,SSE,157,0.0,6.0,88,0.00,,,0.16,WUHU21623XXSP,2013-06-11 10:08:00,
2013-06-11 06:10:00,58.3,54.8,29.70,SSE,157,0.0,6.0,88,0.02,,,0.16,WUHU21623XXSP,2013-06-11 10:10:00,
2013-06-11 06:12:00,58.3,54.8,29.70,ESE,112,6.5,6.5,88,0.02,,,0.18,WUHU21623XXSP,2013-06-11 10:12:00,
2013-06-11 06:14:00,58.1,54.6,29.70,SE,135,0.0,6.5,88,0.02,,,0.18,WUHU21623XXSP,2013-06-11 10:14:00,
2013-06-11 06:17:00,58.1,54.6,29.69,SE,135,0.0,6.5,88,0.02,,,0.18,WUHU21623XXSP,2013-06-11 10:17:00,
2013-06-11 06:19:00,58.3,54.8,29.70,SE,135,0.0,6.5,88,0.02,,,0.18,WUHU21623XXSP,2013-06-11 10:19:00,
2013-06-11 06:21:00,58.3,54.8,29.70,SE,135,0.0,6.5,88,0.02,,,0.18,WUHU21623XXSP,2013-06-11 10:21:00,
2013-06-11 06:23:00,58.3,54.8,29.69,SE,135,0.0,0.0,88,0.02,,,0.18,WUHU21623XXSP,2013-06-11 10:23:00,
2013-06-11 06:25:00,58.3,54.8,29.69,SE,135,1.6,1.6,88,0.02,,,0.18,WUHU21623XXSP,2013-06-11 10:25:00,
2013-06-11 06:27:00,58.1,54.6,29.69,ESE,112,0.0,1.6,88,0.02,,,0.18,WUHU21623XXSP,2013-06-11 10:27:00,
2013-06-11 06:29:00,58.3,54.8,29.69,ESE,112,0.0,1.6,88,0.02,,,0.18,WUHU21623XXSP,2013-06-11 10:29:00,
2013-06-11 06:32:00,58.3,54.8,29.69,SE,135,0.9,1.6,88,0.02,,,0.18,WUHU21623XXSP,2013-06-11 10:32:00,
2013-06-11 06:34:00,58.3,54.8,29.69,ESE,112,0.0,1.6,88,0.02,,,0.18,WUHU21623XXSP,2013-06-11 10:34:00,
2013-06-11 06:36:00,58.5,54.9,29.69,East,90,0.0,0.9,88,0.02,,,0.18,WUHU21623XXSP,2013-06-11 10:36:00,
2013-06-11 06:38:00,58.3,54.8,29.69,ESE,112,0.0,0.9,88,0.02,,,0.18,WUHU21623XXSP,2013-06-11 10:38:00,
2013-06-11 06:40:00,58.5,54.9,29.69,East,90,0.9,0.9,88,0.02,,,0.18,WUHU21623XXSP,2013-06-11 10:40:00,
2013-06-11 06:42:00,58.3,54.8,29.69,East,90,0.0,0.9,88,0.02,,,0.18,WUHU21623XXSP,2013-06-11 10:42:00,
2013-06-11 06:44:00,58.5,54.9,29.69,East,90,0.0,0.9,88,0.02,,,0.18,WUHU21623XXSP,2013-06-11 10:44:00,
2013-06-11 06:46:00,58.5,54.9,29.69,East,90,0.0,0.9,88,0.02,,,0.18,WUHU21623XXSP,2013-06-11 10:46:00,
2013-06-11 06:49:00,58.5,54.9,29.69,East,90,0.0,0.9,88,0.02,,,0.18,WUHU21623XXSP,2013-06-11 10:49:00,
2013-06-11 06:51:00,58.6,55.1,29.69,SE,135,0.7,0.7,88,0.02,,,0.18,WUHU21623XXSP,2013-06-11 10:51:00,
2013-06-11 06:53:00,58.6,55.1,29.69,SE,135,0.0,0.7,88,0.02,,,0.18,WUHU21623XXSP,2013-06-11 10:53:00,
2013-06-11 06:55:00,58.8,55.3,29.69,SE,135,0.0,0.7,88,0.02,,,0.18,WUHU21623XXSP,2013-06-11 10:55:00,
2013-06-11 06:57:00,58.8,55.3,29.69,SSE,157,5.1,5.1,88,0.02,,,0.18,WUHU21623XXSP,2013-06-11 10:57:00,
2013-06-11 06:59:00,58.6,55.1,29.69,South,180,7.8,7.8,88,0.02,,,0.18,WUHU21623XXSP,2013-06-11 10:59:00,
2013-06-11 07:02:00,58.8,55.3,29.69,South,180,0.0,7.8,88,0.02,,,0.18,WUHU21623XXSP,2013-06-11 11:02:00,
2013-06-11 07:04:00,58.8,55.3,29.69,South,180,0.0,7.8,88,0.02,,,0.18,WUHU21623XXSP,2013-06-11 11:04:00,
2013-06-11 07:06:00,58.8,55.3,29.69,South,180,1.6,7.8,88,0.02,,,0.18,WUHU21623XXSP,2013-06-11 11:06:00,
2013-06-11 07:08:00,58.8,55.3,29.69,South,180,1.6,7.8,88,0.00,,,0.18,WUHU21623XXSP,2013-06-11 11:08:00,
2013-06-11 07:10:00,58.6,55.1,29.69,South,180,0.0,1.6,88,0.00,,,0.18,WUHU21623XXSP,2013-06-11 11:10:00,
2013-06-11 07:12:00,58.6,55.1,29.69,SSE,157,0.0,1.6,88,0.00,,,0.18,WUHU21623XXSP,2013-06-11 11:12:00,
2013-06-11 07:14:00,58.6,55.1,29.69,South,180,5.1,5.1,88,0.00,,,0.18,WUHU21623XXSP,2013-06-11 11:14:00,
2013-06-11 07:16:00,58.6,55.1,29.69,South,180,0.0,5.1,88,0.00,,,0.18,WUHU21623XXSP,2013-06-11 11:16:00,
2013-06-11 07:19:00,58.6,55.1,29.69,South,180,1.3,5.1,88,0.00,,,0.18,WUHU21623XXSP,2013-06-11 11:19:00,
2013-06-11 07:21:00,58.6,55.1,29.69,South,180,3.8,5.1,88,0.00,,,0.18,WUHU21623XXSP,2013-06-11 11:21:00,
2013-06-11 07:23:00,58.6,55.1,29.68,East,90,0.0,5.1,88,0.00,,,0.18,WUHU21623XXSP,2013-06-11 11:23:00,
2013-06-11 07:25:00,58.8,55.3,29.69,South,180,0.0,3.8,88,0.00,,,0.18,WUHU21623XXSP,2013-06-11 11:25:00,
2013-06-11 07:27:00,58.6,55.1,29.68,East,90,0.0,3.8,88,0.00,,,0.18,WUHU21623XXSP,2013-06-11 11:27:00,
2013-06-11 07:29:00,58.8,55.0,29.69,SSE,157,0.0,3.8,87,0.00,,,0.18,WUHU21623XXSP,2013-06-11 11:29:00,
2013-06-11 07:32:00,58.8,55.0,29.68,SSE,157,0.0,0.0,87,0.00,,,0.18,WUHU21623XXSP,2013-06-11 11:32:00,
2013-06-11 07:34:00,58.8,55.0,29.69,NE,45,0.0,0.0,87,0.00,,,0.18,WUHU21623XXSP,2013-06-11 11:34:00,
2013-06-11 07:36:00,58.8,55.0,29.69,South,180,0.0,0.0,87,0.00,,,0.18,WUHU21623XXSP,2013-06-11 11:36:00,
2013-06-11 07:38:00,58.8,55.0,29.69,SSE,157,0.0,0.0,87,0.00,,,0.18,WUHU21623XXSP,2013-06-11 11:38:00,
2013-06-11 07:40:00,58.8,55.0,29.69,SE,135,0.0,0.0,87,0.00,,,0.18,WUHU21623XXSP,2013-06-11 11:40:00,
2013-06-11 07:42:00,58.8,55.0,29.69,ESE,112,0.0,0.0,87,0.00,,,0.18,WUHU21623XXSP,2013-06-11 11:42:00,
2013-06-11 07:44:00,58.8,55.0,29.69,SE,135,0.9,0.9,87,0.00,,,0.18,WUHU21623XXSP,2013-06-11 11:44:00,
2013-06-11 07:46:00,58.8,55.0,29.69,SE,135,0.0,0.9,87,0.00,,,0.18,WUHU21623XXSP,2013-06-11 11:46:00,
2013-06-11 07:49:00,58.8,55.0,29.69,SE,135,0.9,0.9,87,0.00,,,0.18,WUHU21623XXSP,2013-06-11 11:49:00,
2013-06-11 07:51:00,58.8,55.0,29.69,SE,135,0.0,0.9,87,0.00,,,0.18,WUHU21623XXSP,2013-06-11 11:51:00,
2013-06-11 07:53:00,58.8,55.0,29.69,SE,135,0.0,0.9,87,0.00,,,0.18,WUHU21623XXSP,2013-06-11 11:53:00,
2013-06-11 07:55:00,58.8,55.0,29.69,SE,135,0.0,0.9,87,0.00,,,0.18,WUHU21623XXSP,2013-06-11 11:55:00,
2013-06-11 07:57:00,58.8,55.0,29.69,ESE,112,0.0,0.9,87,0.00,,,0.18,WUHU21623XXSP,2013-06-11 11:57:00,
2013-06-11 07:59:00,58.8,55.0,29.69,ESE,112,0.0,0.0,87,0.00,,,0.18,WUHU21623XXSP,2013-06-11 11:59:00,
2013-06-11 08:01:00,58.8,55.0,29.69,ESE,112,0.0,0.0,87,0.00,,,0.18,WUHU21623XXSP,2013-06-11 12:01:00,
2013-06-11 08:04:00,59.2,55.3,29.69,ESE,112,0.0,0.0,87,0.00,,,0.18,WUHU21623XXSP,2013-06-11 12:04:00,
2013-06-11 08:06:00,59.4,55.5,29.69,SE,135,0.0,0.0,87,0.00,,,0.18,WUHU21623XXSP,2013-06-11 12:06:00,
2013-06-11 08:08:00,59.4,55.5,29.69,SE,135,0.0,0.0,87,0.00,,,0.18,WUHU21623XXSP,2013-06-11 12:08:00,
2013-06-11 08:10:00,59.5,55.7,29.68,SE,135,0.0,0.0,87,0.00,,,0.18,WUHU21623XXSP,2013-06-11 12:10:00,
2013-06-11 08:12:00,59.5,55.7,29.68,SE,135,0.0,0.0,87,0.00,,,0.18,WUHU21623XXSP,2013-06-11 12:12:00,
2013-06-11 08:14:00,59.9,56.0,29.68,SE,135,0.0,0.0,87,0.00,,,0.18,WUHU21623XXSP,2013-06-11 12:14:00,
2013-06-11 08:16:00,60.1,56.2,29.68,SE,135,0.0,0.0,87,0.00,,,0.18,WUHU21623XXSP,2013-06-11 12:16:00,
2013-06-11 08:19:00,60.3,56.4,29.68,SE,135,0.0,0.0,87,0.00,,,0.18,WUHU21623XXSP,2013-06-11 12:19:00,
2013-06-11 08:21:00,60.4,56.6,29.68,South,180,0.7,0.7,87,0.00,,,0.18,WUHU21623XXSP,2013-06-11 12:21:00,
2013-06-11 08:23:00,60.4,56.6,29.68,South,180,0.0,0.7,87,0.00,,,0.18,WUHU21623XXSP,2013-06-11 12:23:00,
2013-06-11 08:25:00,60.4,56.6,29.68,South,180,0.0,0.7,87,0.00,,,0.18,WUHU21623XXSP,2013-06-11 12:25:00,
2013-06-11 08:27:00,60.4,56.6,29.68,South,180,0.0,0.7,87,0.00,,,0.18,WUHU21623XXSP,2013-06-11 12:27:00,
2013-06-11 08:29:00,60.4,56.6,29.68,South,180,0.0,0.7,87,0.00,,,0.18,WUHU21623XXSP,2013-06-11 12:29:00,
2013-06-11 08:31:00,60.6,56.8,29.68,South,180,0.0,0.0,87,0.00,,,0.18,WUHU21623XXSP,2013-06-11 12:31:00,
2013-06-11 08:34:00,60.6,56.8,29.68,South,180,0.0,0.0,87,0.00,,,0.18,WUHU21623XXSP,2013-06-11 12:34:00,
2013-06-11 08:36:00,60.6,56.8,29.68,SSE,157,0.0,0.0,87,0.00,,,0.18,WUHU21623XXSP,2013-06-11 12:36:00,
2013-06-11 08:38:00,61.0,57.1,29.68,South,180,0.7,0.7,87,0.00,,,0.18,WUHU21623XXSP,2013-06-11 12:38:00,
2013-06-11 08:40:00,61.2,57.3,29.68,South,180,0.0,0.7,87,0.00,,,0.18,WUHU21623XXSP,2013-06-11 12:40:00,
2013-06-11 08:42:00,61.3,57.5,29.68,ESE,112,0.0,0.7,87,0.00,,,0.18,WUHU21623XXSP,2013-06-11 12:42:00,
2013-06-11 08:44:00,61.5,57.6,29.68,SE,135,0.0,0.7,87,0.00,,,0.18,WUHU21623XXSP,2013-06-11 12:44:00,
2013-06-11 08:46:00,61.7,57.8,29.67,ESE,112,4.7,4.7,87,0.00,,,0.18,WUHU21623XXSP,2013-06-11 12:46:00,
2013-06-11 08:49:00,61.7,57.8,29.67,South,180,0.0,4.7,87,0.00,,,0.18,WUHU21623XXSP,2013-06-11 12:49:00,
2013-06-11 08:51:00,61.9,58.0,29.67,SE,135,0.0,4.7,87,0.00,,,0.18,WUHU21623XXSP,2013-06-11 12:51:00,
2013-06-11 08:53:00,61.9,58.0,29.67,SE,135,0.0,4.7,87,0.00,,,0.18,WUHU21623XXSP,2013-06-11 12:53:00,
2013-06-11 08:55:00,61.7,57.8,29.67,SSE,157,0.0,4.7,87,0.00,,,0.18,WUHU21623XXSP,2013-06-11 12:55:00,
2013-06-11 08:57:00,61.9,58.0,29.67,SSE,157,0.0,0.0,87,0.00,,,0.18,WUHU21623XXSP,2013-06-11 12:57:00,
2013-06-11 08:59:00,61.9,58.0,29.67,East,90,0.0,0.0,87,0.00,,,0.18,WUHU21623XXSP,2013-06-11 12:59:00,
2013-06-11 09:01:00,62.2,58.3,29.67,SSE,157,0.0,0.0,87,0.00,,,0.18,WUHU21623XXSP,2013-06-11 13:01:00,
2013-06-11 09:03:00,62.2,58.3,29.67,SE,135,0.0,0.0,87,0.00,,,0.18,WUHU21623XXSP,2013-06-11 13:03:00,
2013-06-11 09:06:00,62.4,58.5,29.67,SE,135,0.0,0.0,87,0.00,,,0.18,WUHU21623XXSP,2013-06-11 13:06:00,
2013-06-11 09:08:00,62.8,58.9,29.67,SE,135,0.0,0.0,87,0.00,,,0.18,WUHU21623XXSP,2013-06-11 13:08:00,
2013-06-11 09:10:00,63.0,59.1,29.66,ESE,112,2.7,2.7,87,0.00,,,0.18,WUHU21623XXSP,2013-06-11 13:10:00,
2013-06-11 09:12:00,63.1,58.9,29.66,SE,135,0.0,2.7,86,0.00,,,0.18,WUHU21623XXSP,2013-06-11 13:12:00,
2013-06-11 09:14:00,63.0,58.7,29.66,SE,135,1.1,2.7,86,0.00,,,0.18,WUHU21623XXSP,2013-06-11 13:14:00,
2013-06-11 09:16:00,63.0,58.7,29.66,SSE,157,1.1,2.7,86,0.00,,,0.18,WUHU21623XXSP,2013-06-11 13:16:00,
2013-06-11 09:18:00,63.0,58.7,29.66,SSE,157,0.0,2.7,86,0.00,,,0.18,WUHU21623XXSP,2013-06-11 13:18:00,
2013-06-11 09:21:00,63.1,58.9,29.66,SSE,157,1.8,1.8,86,0.00,,,0.18,WUHU21623XXSP,2013-06-11 13:21:00,
2013-06-11 09:23:00,63.3,59.1,29.66,SE,135,0.0,1.8,86,0.00,,,0.18,WUHU21623XXSP,2013-06-11 13:23:00,
2013-06-11 09:25:00,63.3,59.1,29.66,ESE,112,0.0,1.8,86,0.00,,,0.18,WUHU21623XXSP,2013-06-11 13:25:00,
2013-06-11 09:27:00,63.3,59.1,29.66,ESE,112,0.0,1.8,86,0.00,,,0.18,WUHU21623XXSP,2013-06-11 13:27:00,
2013-06-11 09:29:00,63.7,59.4,29.66,ESE,112,0.0,1.8,86,0.00,,,0.18,WUHU21623XXSP,2013-06-11 13:29:00,
2013-06-11 09:31:00,63.7,59.4,29.66,ESE,112,0.0,0.0,86,0.00,,,0.18,WUHU21623XXSP,2013-06-11 13:31:00,
2013-06-11 09:33:00,64.0,59.8,29.66,ESE,112,0.0,0.0,86,0.00,,,0.18,WUHU21623XXSP,2013-06-11 13:33:00,
2013-06-11 09:36:00,64.2,60.0,29.66,ESE,112,0.0,0.0,86,0.00,,,0.18,WUHU21623XXSP,2013-06-11 13:36:00,
2013-06-11 09:38:00,64.2,60.0,29.66,ESE,112,0.0,0.0,86,0.00,,,0.18,WUHU21623XXSP,2013-06-11 13:38:00,
2013-06-11 09:40:00,64.6,60.3,29.66,ESE,112,0.0,0.0,86,0.00,,,0.18,WUHU21623XXSP,2013-06-11 13:40:00,
2013-06-11 09:42:00,64.6,60.3,29.66,ESE,112,0.0,0.0,86,0.00,,,0.18,WUHU21623XXSP,2013-06-11 13:42:00,
2013-06-11 09:44:00,64.8,60.5,29.65,SE,135,0.7,0.7,86,0.00,,,0.18,WUHU21623XXSP,2013-06-11 13:44:00,
2013-06-11 09:46:00,64.8,60.2,29.65,ESE,112,0.0,0.7,85,0.00,,,0.18,WUHU21623XXSP,2013-06-11 13:46:00,
2013-06-11 09:48:00,64.9,60.3,29.65,SSE,157,1.6,1.6,85,0.00,,,0.18,WUHU21623XXSP,2013-06-11 13:48:00,
2013-06-11 09:51:00,65.1,60.5,29.65,SSE,157,0.0,1.6,85,0.00,,,0.18,WUHU21623XXSP,2013-06-11 13:51:00,
2013-06-11 09:53:00,65.3,60.7,29.65,ESE,112,0.0,1.6,85,0.00,,,0.18,WUHU21623XXSP,2013-06-11 13:53:00,
2013-06-11 09:55:00,65.3,60.7,29.65,SE,135,0.0,1.6,85,0.00,,,0.18,WUHU21623XXSP,2013-06-11 13:55:00,
2013-06-11 09:57:00,65.5,60.8,29.65,SSE,157,0.0,1.6,85,0.00,,,0.18,WUHU21623XXSP,2013-06-11 13:57:00,
2013-06-11 09:59:00,65.5,60.8,29.65,SSE,157,0.0,0.0,85,0.00,,,0.18,WUHU21623XXSP,2013-06-11 13:59:00,
2013-06-11 10:01:00,65.5,60.8,29.64,SSE,157,0.0,0.0,85,0.00,,,0.18,WUHU21623XXSP,2013-06-11 14:01:00,
2013-06-11 10:03:00,65.7,61.0,29.64,SSE,157,0.0,0.0,85,0.00,,,0.18,WUHU21623XXSP,2013-06-11 14:03:00,
2013-06-11 10:06:00,65.7,61.0,29.64,SSE,157,0.0,0.0,85,0.00,,,0.18,WUHU21623XXSP,2013-06-11 14:06:00,
2013-06-11 10:08:00,65.7,61.0,29.64,SSE,157,0.0,0.0,85,0.00,,,0.18,WUHU21623XXSP,2013-06-11 14:08:00,
2013-06-11 10:10:00,65.5,60.8,29.64,East,90,0.0,0.0,85,0.00,,,0.18,WUHU21623XXSP,2013-06-11 14:10:00,
2013-06-11 10:12:00,65.5,60.8,29.64,East,90,0.0,0.0,85,0.00,,,0.18,WUHU21623XXSP,2013-06-11 14:12:00,
2013-06-11 10:14:00,65.3,60.7,29.64,East,90,0.0,0.0,85,0.00,,,0.18,WUHU21623XXSP,2013-06-11 14:14:00,
2013-06-11 10:16:00,65.3,60.7,29.64,SSE,157,0.0,0.0,85,0.00,,,0.18,WUHU21623XXSP,2013-06-11 14:16:00,
2013-06-11 10:18:00,65.1,60.5,29.64,SSE,157,1.3,1.3,85,0.00,,,0.18,WUHU21623XXSP,2013-06-11 14:18:00,
2013-06-11 10:21:00,64.9,60.3,29.64,SSE,157,0.0,1.3,85,0.00,,,0.18,WUHU21623XXSP,2013-06-11 14:21:00,
2013-06-11 10:23:00,64.9,60.3,29.64,SSE,157,0.0,1.3,85,0.00,,,0.18,WUHU21623XXSP,2013-06-11 14:23:00,
2013-06-11 10:25:00,64.8,60.2,29.64,SSE,157,1.6,1.6,85,0.00,,,0.18,WUHU21623XXSP,2013-06-11 14:25:00,
2013-06-11 10:27:00,64.6,60.0,29.64,SSE,157,0.0,1.6,85,0.00,,,0.18,WUHU21623XXSP,2013-06-11 14:27:00,
2013-06-11 10:29:00,64.2,59.6,29.64,SSE,157,0.0,1.6,85,0.00,,,0.18,WUHU21623XXSP,2013-06-11 14:29:00,
2013-06-11 10:31:00,63.9,59.3,29.64,SSE,157,1.3,1.6,85,0.00,,,0.18,WUHU21623XXSP,2013-06-11 14:31:00,
2013-06-11 10:33:00,63.3,59.1,29.64,SSE,157,0.0,1.6,86,0.00,,,0.18,WUHU21623XXSP,2013-06-11 14:33:00,
2013-06-11 10:36:00,63.3,59.1,29.64,SSE,157,0.0,1.3,86,0.00,,,0.18,WUHU21623XXSP,2013-06-11 14:36:00,
2013-06-11 10:38:00,63.1,58.9,29.64,SSE,157,0.0,1.3,86,0.00,,,0.18,WUHU21623XXSP,2013-06-11 14:38:00,
2013-06-11 10:40:00,63.1,58.9,29.64,South,180,2.0,2.0,86,0.00,,,0.18,WUHU21623XXSP,2013-06-11 14:40:00,
2013-06-11 10:42:00,63.1,58.9,29.64,South,180,0.0,2.0,86,0.00,,,0.18,WUHU21623XXSP,2013-06-11 14:42:00,
2013-06-11 10:44:00,63.0,58.7,29.64,South,180,2.0,2.0,86,0.00,,,0.18,WUHU21623XXSP,2013-06-11 14:44:00,
2013-06-11 10:46:00,63.0,58.7,29.64,SSE,157,0.0,2.0,86,0.00,,,0.18,WUHU21623XXSP,2013-06-11 14:46:00,
2013-06-11 10:48:00,63.0,58.7,29.64,SSE,157,0.0,2.0,86,0.00,,,0.18,WUHU21623XXSP,2013-06-11 14:48:00,
2013-06-11 10:51:00,63.1,58.9,29.64,SSW,202,0.0,2.0,86,0.00,,,0.18,WUHU21623XXSP,2013-06-11 14:51:00,
2013-06-11 10:53:00,63.1,58.9,29.64,SSW,202,0.0,2.0,86,0.02,,,0.18,WUHU21623XXSP,2013-06-11 14:53:00,
2013-06-11 10:55:00,63.1,59.2,29.64,SSE,157,0.0,0.0,87,0.02,,,0.20,WUHU21623XXSP,2013-06-11 14:55:00,
2013-06-11 10:57:00,63.1,59.2,29.64,SSE,157,3.4,3.4,87,0.02,,,0.20,WUHU21623XXSP,2013-06-11 14:57:00,
2013-06-11 10:59:00,63.0,59.1,29.64,SSE,157,4.0,4.0,87,0.02,,,0.20,WUHU21623XXSP,2013-06-11 14:59:00,
2013-06-11 11:01:00,63.0,59.1,29.64,SSE,157,0.0,4.0,87,0.02,,,0.20,WUHU21623XXSP,2013-06-11 15:01:00,
2013-06-11 11:03:00,63.0,59.1,29.64,SSE,157,2.2,4.0,87,0.02,,,0.20,WUHU21623XXSP,2013-06-11 15:03:00,
2013-06-11 11:05:00,62.8,58.9,29.64,SSE,157,2.5,4.0,87,0.02,,,0.20,WUHU21623XXSP,2013-06-11 15:05:00,
2013-06-11 11:08:00,62.8,58.9,29.64,SE,135,0.0,4.0,87,0.02,,,0.20,WUHU21623XXSP,2013-06-11 15:08:00,
2013-06-11 11:10:00,62.6,58.7,29.64,South,180,0.0,2.5,87,0.02,,,0.20,WUHU21623XXSP,2013-06-11 15:10:00,
2013-06-11 11:12:00,62.8,58.9,29.64,South,180,0.0,2.5,87,0.02,,,0.20,WUHU21623XXSP,2013-06-11 15:12:00,
2013-06-11 11:14:00,62.8,58.9,29.64,South,180,0.0,2.5,87,0.02,,,0.20,WUHU21623XXSP,2013-06-11 15:14:00,
2013-06-11 11:16:00,63.1,59.2,29.64,South,180,0.0,0.0,87,0.02,,,0.20,WUHU21623XXSP,2013-06-11 15:16:00,
2013-06-11 11:19:00,63.0,59.1,29.63,South,180,1.6,1.6,87,0.02,,,0.20,WUHU21623XXSP,2013-06-11 15:19:00,
2013-06-11 11:21:00,63.1,59.2,29.64,South,180,0.0,1.6,87,0.02,,,0.20,WUHU21623XXSP,2013-06-11 15:21:00,
2013-06-11 11:23:00,63.1,59.2,29.63,South,180,0.0,1.6,87,0.02,,,0.20,WUHU21623XXSP,2013-06-11 15:23:00,
2013-06-11 11:25:00,63.3,59.4,29.63,South,180,0.0,1.6,87,0.02,,,0.20,WUHU21623XXSP,2013-06-11 15:25:00,
2013-06-11 11:27:00,63.5,59.6,29.63,South,180,0.0,1.6,87,0.02,,,0.20,WUHU21623XXSP,2013-06-11 15:27:00,
2013-06-11 11:29:00,63.7,59.8,29.63,South,180,0.0,0.0,87,0.02,,,0.20,WUHU21623XXSP,2013-06-11 15:29:00,
2013-06-11 11:31:00,63.7,59.8,29.63,South,180,0.0,0.0,87,0.02,,,0.20,WUHU21623XXSP,2013-06-11 15:31:00,
2013-06-11 11:33:00,64.0,60.1,29.63,South,180,0.0,0.0,87,0.02,,,0.20,WUHU21623XXSP,2013-06-11 15:33:00,
2013-06-11 11:35:00,64.0,60.1,29.63,South,180,0.0,0.0,87,0.02,,,0.20,WUHU21623XXSP,2013-06-11 15:35:00,
2013-06-11 11:38:00,64.0,60.1,29.63,South,180,0.7,0.7,87,0.02,,,0.20,WUHU21623XXSP,2013-06-11 15:38:00,
2013-06-11 11:40:00,64.0,60.1,29.63,South,180,0.0,0.7,87,0.02,,,0.20,WUHU21623XXSP,2013-06-11 15:40:00,
2013-06-11 11:42:00,64.0,60.1,29.63,South,180,1.8,1.8,87,0.02,,,0.20,WUHU21623XXSP,2013-06-11 15:42:00,
2013-06-11 11:44:00,64.0,60.1,29.63,South,180,0.7,1.8,87,0.02,,,0.20,WUHU21623XXSP,2013-06-11 15:44:00,
2013-06-11 11:46:00,63.7,59.8,29.62,South,180,3.4,3.4,87,0.02,,,0.20,WUHU21623XXSP,2013-06-11 15:46:00,
2013-06-11 11:48:00,63.7,59.8,29.63,SSW,202,2.9,3.4,87,0.02,,,0.20,WUHU21623XXSP,2013-06-11 15:48:00,
2013-06-11 11:50:00,63.7,59.8,29.63,SW,225,1.8,3.4,87,0.02,,,0.20,WUHU21623XXSP,2013-06-11 15:50:00,
2013-06-11 11:53:00,63.7,59.8,29.62,SW,225,0.0,3.4,87,0.02,,,0.20,WUHU21623XXSP,2013-06-11 15:53:00,
2013-06-11 11:55:00,63.7,59.8,29.62,SSW,202,1.1,3.4,87,0.02,,,0.22,WUHU21623XXSP,2013-06-11 15:55:00,
2013-06-11 11:57:00,63.7,59.8,29.63,SSW,202,0.0,2.9,87,0.02,,,0.22,WUHU21623XXSP,2013-06-11 15:57:00,
2013-06-11 11:59:00,63.7,59.8,29.62,SSW,202,0.0,1.8,87,0.02,,,0.22,WUHU21623XXSP,2013-06-11 15:59:00,
2013-06-11 12:01:00,63.7,59.8,29.62,SSW,202,0.0,1.1,87,0.02,,,0.22,WUHU21623XXSP,2013-06-11 16:01:00,
2013-06-11 12:03:00,63.5,59.6,29.63,SSW,202,0.9,1.1,87,0.02,,,0.22,WUHU21623XXSP,2013-06-11 16:03:00,
2013-06-11 12:06:00,63.5,59.6,29.62,South,180,2.7,2.7,87,0.02,,,0.22,WUHU21623XXSP,2013-06-11 16:06:00,
2013-06-11 12:08:00,63.5,59.6,29.62,South,180,1.1,2.7,87,0.02,,,0.22,WUHU21623XXSP,2013-06-11 16:08:00,
2013-06-11 12:10:00,63.5,59.6,29.62,South,180,0.0,2.7,87,0.02,,,0.22,WUHU21623XXSP,2013-06-11 16:10:00,
2013-06-11 12:12:00,63.3,59.4,29.62,South,180,0.0,2.7,87,0.02,,,0.22,WUHU21623XXSP,2013-06-11 16:12:00,
2013-06-11 12:14:00,63.3,59.4,29.62,SSE,157,0.0,2.7,87,0.02,,,0.22,WUHU21623XXSP,2013-06-11 16:14:00,
2013-06-11 12:16:00,63.5,59.6,29.62,SSE,157,0.0,1.1,87,0.02,,,0.22,WUHU21623XXSP,2013-06-11 16:16:00,
2013-06-11 12:18:00,63.7,59.8,29.62,SSE,157,0.0,0.0,87,0.02,,,0.22,WUHU21623XXSP,2013-06-11 16:18:00,
2013-06-11 12:20:00,63.7,59.8,29.62,SSE,157,0.0,0.0,87,0.02,,,0.22,WUHU21623XXSP,2013-06-11 16:20:00,
2013-06-11 12:23:00,63.7,59.8,29.62,SSE,157,0.7,0.7,87,0.02,,,0.22,WUHU21623XXSP,2013-06-11 16:23:00,
2013-06-11 12:25:00,63.5,59.6,29.62,SSE,157,0.0,0.7,87,0.02,,,0.22,WUHU21623XXSP,2013-06-11 16:25:00,
2013-06-11 12:27:00,63.5,59.6,29.62,SSE,157,0.0,0.7,87,0.02,,,0.22,WUHU21623XXSP,2013-06-11 16:27:00,
2013-06-11 12:29:00,63.5,59.6,29.62,SSE,157,0.7,0.7,87,0.02,,,0.22,WUHU21623XXSP,2013-06-11 16:29:00,
2013-06-11 12:31:00,63.5,59.6,29.62,SSE,157,0.0,0.7,87,0.02,,,0.22,WUHU21623XXSP,2013-06-11 16:31:00,
2013-06-11 12:33:00,63.5,59.6,29.61,SSE,157,0.0,0.7,87,0.02,,,0.22,WUHU21623XXSP,2013-06-11 16:33:00,
2013-06-11 12:36:00,63.3,59.4,29.62,SSE,157,0.0,0.7,87,0.02,,,0.22,WUHU21623XXSP,2013-06-11 16:36:00,
2013-06-11 12:38:00,63.3,59.4,29.61,SSE,157,0.0,0.7,87,0.02,,,0.22,WUHU21623XXSP,2013-06-11 16:38:00,
2013-06-11 12:40:00,63.3,59.4,29.62,SSE,157,0.0,0.0,87,0.04,,,0.22,WUHU21623XXSP,2013-06-11 16:40:00,
2013-06-11 12:42:00,63.3,59.4,29.62,SSE,157,0.0,0.0,87,0.08,,,0.24,WUHU21623XXSP,2013-06-11 16:42:00,
2013-06-11 12:44:00,63.3,59.4,29.62,SSE,157,0.0,0.0,87,0.10,,,0.28,WUHU21623XXSP,2013-06-11 16:44:00,
2013-06-11 12:46:00,63.5,59.6,29.62,NW,315,5.4,5.4,87,0.10,,,0.31,WUHU21623XXSP,2013-06-11 16:46:00,
2013-06-11 12:48:00,63.3,59.4,29.63,WNW,292,8.5,8.5,87,0.10,,,0.31,WUHU21623XXSP,2013-06-11 16:48:00,
2013-06-11 12:50:00,63.1,59.2,29.63,NW,315,6.9,8.5,87,0.10,,,0.31,WUHU21623XXSP,2013-06-11 16:50:00,
2013-06-11 12:53:00,63.1,59.2,29.63,WNW,292,6.5,8.5,87,0.10,,,0.31,WUHU21623XXSP,2013-06-11 16:53:00,
2013-06-11 12:55:00,63.0,59.1,29.63,NW,315,8.9,8.9,87,0.10,,,0.33,WUHU21623XXSP,2013-06-11 16:55:00,
2013-06-11 12:57:00,62.8,58.9,29.63,West,270,3.4,8.9,87,0.10,,,0.33,WUHU21623XXSP,2013-06-11 16:57:00,
2013-06-11 12:59:00,62.8,58.9,29.63,NW,315,6.3,8.9,87,0.10,,,0.33,WUHU21623XXSP,2013-06-11 16:59:00,
2013-06-11 13:01:00,62.8,58.9,29.63,NW,315,2.0,8.9,87,0.10,,,0.33,WUHU21623XXSP,2013-06-11 17:01:00,
2013-06-11 13:03:00,62.6,58.7,29.63,WNW,292,0.0,8.9,87,0.10,,,0.33,WUHU21623XXSP,2013-06-11 17:03:00,
2013-06-11 13:05:00,62.4,58.5,29.64,SW,225,3.8,6.3,87,0.10,,,0.33,WUHU21623XXSP,2013-06-11 17:05:00,
2013-06-11 13:08:00,62.4,58.5,29.64,WSW,247,5.4,6.3,87,0.10,,,0.33,WUHU21623XXSP,2013-06-11 17:08:00,
2013-06-11 13:10:00,62.4,58.5,29.64,West,270,8.3,8.3,87,0.10,,,0.33,WUHU21623XXSP,2013-06-11 17:10:00,
2013-06-11 13:12:00,62.4,58.5,29.64,WNW,292,1.1,8.3,87,0.10,,,0.33,WUHU21623XXSP,2013-06-11 17:12:00,
2013-06-11 13:14:00,62.4,58.5,29.64,NW,315,3.8,8.3,87,0.10,,,0.33,WUHU21623XXSP,2013-06-11 17:14:00,
2013-06-11 13:16:00,62.4,58.5,29.64,West,270,0.0,8.3,87,0.10,,,0.33,WUHU21623XXSP,2013-06-11 17:16:00,
2013-06-11 13:18:00,62.2,58.3,29.64,West,270,2.9,8.3,87,0.10,,,0.33,WUHU21623XXSP,2013-06-11 17:18:00,
2013-06-11 13:20:00,62.2,58.3,29.64,NW,315,3.1,3.8,87,0.10,,,0.33,WUHU21623XXSP,2013-06-11 17:20:00,
2013-06-11 13:23:00,62.2,58.3,29.64,WSW,247,5.6,5.6,87,0.10,,,0.33,WUHU21623XXSP,2013-06-11 17:23:00,
2013-06-11 13:25:00,62.2,58.3,29.64,West,270,3.6,5.6,87,0.10,,,0.33,WUHU21623XXSP,2013-06-11 17:25:00,
2013-06-11 13:27:00,62.2,58.3,29.64,WNW,292,1.8,5.6,87,0.12,,,0.33,WUHU21623XXSP,2013-06-11 17:27:00,
2013-06-11 13:29:00,62.2,58.3,29.64,WSW,247,6.0,6.0,87,0.12,,,0.35,WUHU21623XXSP,2013-06-11 17:29:00,
2013-06-11 13:31:00,62.2,58.3,29.63,WNW,292,0.0,6.0,87,0.12,,,0.35,WUHU21623XXSP,2013-06-11 17:31:00,
2013-06-11 13:33:00,62.1,58.2,29.64,West,270,2.0,6.0,87,0.12,,,0.35,WUHU21623XXSP,2013-06-11 17:33:00,
2013-06-11 13:35:00,62.2,58.3,29.64,WSW,247,4.3,6.0,87,0.12,,,0.35,WUHU21623XXSP,2013-06-11 17:35:00,
2013-06-11 13:37:00,62.2,58.3,29.64,WNW,292,0.0,6.0,87,0.12,,,0.35,WUHU21623XXSP,2013-06-11 17:37:00,
2013-06-11 13:40:00,62.2,58.3,29.64,West,270,1.1,4.3,87,0.06,,,0.35,WUHU21623XXSP,2013-06-11 17:40:00,
2013-06-11 13:42:00,62.4,58.5,29.63,WSW,247,6.3,6.3,87,0.06,,,0.35,WUHU21623XXSP,2013-06-11 17:42:00,
2013-06-11 13:44:00,62.4,58.5,29.63,WSW,247,2.0,6.3,87,0.04,,,0.35,WUHU21623XXSP,2013-06-11 17:44:00,
2013-06-11 13:46:00,62.8,58.9,29.64,NW,315,0.0,6.3,87,0.04,,,0.35,WUHU21623XXSP,2013-06-11 17:46:00,
2013-06-11 13:48:00,63.1,59.2,29.63,WNW,292,11.9,11.9,87,0.04,,,0.35,WUHU21623XXSP,2013-06-11 17:48:00,
2013-06-11 13:50:00,63.1,59.2,29.64,WSW,247,11.0,11.9,87,0.04,,,0.35,WUHU21623XXSP,2013-06-11 17:50:00,
2013-06-11 13:52:00,63.1,59.2,29.63,West,270,4.9,11.9,87,0.02,,,0.35,WUHU21623XXSP,2013-06-11 17:52:00,
2013-06-11 13:55:00,63.1,59.2,29.63,WNW,292,7.6,11.9,87,0.02,,,0.35,WUHU21623XXSP,2013-06-11 17:55:00,
2013-06-11 13:57:00,63.1,59.2,29.63,WNW,292,6.3,11.9,87,0.02,,,0.35,WUHU21623XXSP,2013-06-11 17:57:00,
2013-06-11 13:59:00,63.0,59.1,29.63,West,270,2.0,11.0,87,0.02,,,0.35,WUHU21623XXSP,2013-06-11 17:59:00,
2013-06-11 14:01:00,62.8,58.9,29.63,SW,225,6.9,7.6,87,0.04,,,0.35,WUHU21623XXSP,2013-06-11 18:01:00,
2013-06-11 14:03:00,62.6,58.7,29.63,SSW,202,0.0,7.6,87,0.04,,,0.37,WUHU21623XXSP,2013-06-11 18:03:00,
2013-06-11 14:05:00,62.4,58.5,29.63,West,270,7.6,7.6,87,0.04,,,0.37,WUHU21623XXSP,2013-06-11 18:05:00,
2013-06-11 14:07:00,62.4,58.5,29.63,SW,225,4.0,7.6,87,0.04,,,0.37,WUHU21623XXSP,2013-06-11 18:07:00,
2013-06-11 14:10:00,62.4,58.5,29.63,NW,315,0.0,7.6,87,0.04,,,0.37,WUHU21623XXSP,2013-06-11 18:10:00,
2013-06-11 14:12:00,62.4,58.5,29.63,WNW,292,6.3,7.6,87,0.04,,,0.37,WUHU21623XXSP,2013-06-11 18:12:00,
2013-06-11 14:14:00,62.4,58.5,29.63,SW,225,6.7,7.6,87,0.04,,,0.37,WUHU21623XXSP,2013-06-11 18:14:00,
2013-06-11 14:16:00,62.2,58.3,29.63,West,270,1.6,6.7,87,0.04,,,0.37,WUHU21623XXSP,2013-06-11 18:16:00,
2013-06-11 14:18:00,62.2,58.3,29.63,West,270,13.6,13.6,87,0.04,,,0.37,WUHU21623XXSP,2013-06-11 18:18:00,
2013-06-11 14:20:00,61.9,58.0,29.63,WNW,292,2.0,13.6,87,0.04,,,0.37,WUHU21623XXSP,2013-06-11 18:20:00,
2013-06-11 14:22:00,61.9,58.0,29.63,West,270,0.4,13.6,87,0.04,,,0.37,WUHU21623XXSP,2013-06-11 18:22:00,
2013-06-11 14:25:00,61.7,57.8,29.63,WNW,292,2.2,13.6,87,0.02,,,0.37,WUHU21623XXSP,2013-06-11 18:25:00,
2013-06-11 14:27:00,61.7,57.8,29.63,WNW,292,1.6,13.6,87,0.04,,,0.37,WUHU21623XXSP,2013-06-11 18:27:00,
2013-06-11 14:29:00,61.5,57.6,29.63,WNW,292,0.0,2.2,87,0.04,,,0.39,WUHU21623XXSP,2013-06-11 18:29:00,
2013-06-11 14:31:00,61.5,57.6,29.63,West,270,0.9,2.2,87,0.04,,,0.39,WUHU21623XXSP,2013-06-11 18:31:00,
2013-06-11 14:33:00,61.5,57.6,29.63,West,270,8.9,8.9,87,0.04,,,0.39,WUHU21623XXSP,2013-06-11 18:33:00,
2013-06-11 14:35:00,61.3,57.5,29.63,WSW,247,5.4,8.9,87,0.04,,,0.39,WUHU21623XXSP,2013-06-11 18:35:00,
2013-06-11 14:37:00,61.5,57.6,29.63,West,270,7.2,8.9,87,0.04,,,0.39,WUHU21623XXSP,2013-06-11 18:37:00,
2013-06-11 14:40:00,61.5,57.6,29.63,NW,315,0.0,8.9,87,0.04,,,0.39,WUHU21623XXSP,2013-06-11 18:40:00,
2013-06-11 14:42:00,61.5,57.6,29.63,WNW,292,1.1,8.9,87,0.04,,,0.39,WUHU21623XXSP,2013-06-11 18:42:00,
2013-06-11 14:44:00,61.3,57.5,29.63,WNW,292,6.7,7.2,87,0.04,,,0.39,WUHU21623XXSP,2013-06-11 18:44:00,
2013-06-11 14:46:00,61.3,57.5,29.63,WNW,292,2.7,7.2,87,0.04,,,0.39,WUHU21623XXSP,2013-06-11 18:46:00,
2013-06-11 14:48:00,61.3,57.5,29.63,WSW,247,5.4,6.7,87,0.04,,,0.39,WUHU21623XXSP,2013-06-11 18:48:00,
2013-06-11 14:50:00,61.0,57.1,29.64,WNW,292,3.4,6.7,87,0.04,,,0.39,WUHU21623XXSP,2013-06-11 18:50:00,
2013-06-11 14:52:00,61.0,57.1,29.64,WNW,292,4.9,6.7,87,0.04,,,0.39,WUHU21623XXSP,2013-06-11 18:52:00,
2013-06-11 14:55:00,61.0,57.1,29.64,WNW,292,0.7,5.4,87,0.04,,,0.39,WUHU21623XXSP,2013-06-11 18:55:00,
2013-06-11 14:57:00,61.0,57.1,29.64,NW,315,2.7,5.4,87,0.04,,,0.39,WUHU21623XXSP,2013-06-11 18:57:00,
2013-06-11 14:59:00,61.0,57.1,29.64,WNW,292,7.8,7.8,87,0.02,,,0.39,WUHU21623XXSP,2013-06-11 18:59:00,
2013-06-11 15:01:00,61.0,57.1,29.63,WSW,247,6.5,7.8,87,0.02,,,0.39,WUHU21623XXSP,2013-06-11 19:01:00,
2013-06-11 15:03:00,61.0,57.1,29.64,WNW,292,7.4,7.8,87,0.02,,,0.39,WUHU21623XXSP,2013-06-11 19:03:00,
2013-06-11 15:05:00,60.8,56.9,29.64,NW,315,3.8,7.8,87,0.02,,,0.39,WUHU21623XXSP,2013-06-11 19:05:00,
2013-06-11 15:07:00,60.6,57.1,29.64,West,270,0.0,7.8,88,0.02,,,0.39,WUHU21623XXSP,2013-06-11 19:07:00,
2013-06-11 15:10:00,60.6,57.1,29.64,WNW,292,2.5,7.4,88,0.02,,,0.39,WUHU21623XXSP,2013-06-11 19:10:00,
2013-06-11 15:12:00,60.6,57.1,29.64,WNW,292,5.1,7.4,88,0.02,,,0.39,WUHU21623XXSP,2013-06-11 19:12:00,
2013-06-11 15:14:00,60.6,57.1,29.64,NW,315,4.0,5.1,88,0.02,,,0.39,WUHU21623XXSP,2013-06-11 19:14:00,
2013-06-11 15:16:00,60.6,57.1,29.64,West,270,0.0,5.1,88,0.02,,,0.39,WUHU21623XXSP,2013-06-11 19:16:00,
2013-06-11 15:18:00,60.6,57.1,29.64,West,270,1.6,5.1,88,0.02,,,0.39,WUHU21623XXSP,2013-06-11 19:18:00,
2013-06-11 15:20:00,60.6,57.1,29.64,WNW,292,2.5,5.1,88,0.02,,,0.39,WUHU21623XXSP,2013-06-11 19:20:00,
2013-06-11 15:22:00,60.6,57.1,29.64,West,270,3.6,4.0,88,0.02,,,0.39,WUHU21623XXSP,2013-06-11 19:22:00,
2013-06-11 15:25:00,60.6,57.1,29.64,WNW,292,0.0,3.6,88,0.00,,,0.39,WUHU21623XXSP,2013-06-11 19:25:00,
2013-06-11 15:27:00,60.6,57.1,29.64,NW,315,6.3,6.3,88,0.00,,,0.39,WUHU21623XXSP,2013-06-11 19:27:00,
2013-06-11 15:29:00,60.6,57.1,29.64,West,270,0.0,6.3,88,0.00,,,0.39,WUHU21623XXSP,2013-06-11 19:29:00,
2013-06-11 15:31:00,60.6,57.1,29.64,West,270,7.2,7.2,88,0.00,,,0.39,WUHU21623XXSP,2013-06-11 19:31:00,
2013-06-11 15:33:00,60.6,57.1,29.64,West,270,2.7,7.2,88,0.00,,,0.39,WUHU21623XXSP,2013-06-11 19:33:00,
2013-06-11 15:35:00,60.6,57.1,29.64,WNW,292,14.8,14.8,88,0.00,,,0.39,WUHU21623XXSP,2013-06-11 19:35:00,
2013-06-11 15:37:00,60.4,56.6,29.64,West,270,0.0,14.8,87,0.00,,,0.39,WUHU21623XXSP,2013-06-11 19:37:00,
2013-06-11 15:40:00,60.6,57.1,29.64,NW,315,4.5,14.8,88,0.00,,,0.39,WUHU21623XXSP,2013-06-11 19:40:00,
2013-06-11 15:42:00,60.6,56.8,29.64,West,270,8.9,14.8,87,0.00,,,0.39,WUHU21623XXSP,2013-06-11 19:42:00,
2013-06-11 15:44:00,60.6,56.8,29.65,WNW,292,0.7,14.8,87,0.00,,,0.39,WUHU21623XXSP,2013-06-11 19:44:00,
2013-06-11 15:46:00,60.4,56.6,29.65,WNW,292,2.5,8.9,87,0.00,,,0.39,WUHU21623XXSP,2013-06-11 19:46:00,
2013-06-11 15:48:00,60.4,56.6,29.65,WNW,292,2.2,8.9,87,0.00,,,0.39,WUHU21623XXSP,2013-06-11 19:48:00,
2013-06-11 15:50:00,60.6,57.1,29.65,WNW,292,3.6,8.9,88,0.00,,,0.39,WUHU21623XXSP,2013-06-11 19:50:00,
2013-06-11 15:52:00,60.6,56.8,29.65,WNW,292,8.9,8.9,87,0.00,,,0.39,WUHU21623XXSP,2013-06-11 19:52:00,
2013-06-11 15:54:00,60.4,56.6,29.65,WNW,292,4.3,8.9,87,0.00,,,0.39,WUHU21623XXSP,2013-06-11 19:54:00,
2013-06-11 15:57:00,60.4,56.6,29.65,WSW,247,10.1,10.1,87,0.00,,,0.39,WUHU21623XXSP,2013-06-11 19:57:00,
2013-06-11 15:59:00,60.4,56.6,29.65,North,0,6.5,10.1,87,0.00,,,0.39,WUHU21623XXSP,2013-06-11 19:59:00,
2013-06-11 16:01:00,60.4,56.6,29.65,West,270,0.0,10.1,87,0.00,,,0.39,WUHU21623XXSP,2013-06-11 20:01:00,
2013-06-11 16:03:00,60.4,56.6,29.65,WNW,292,0.0,10.1,87,0.00,,,0.39,WUHU21623XXSP,2013-06-11 20:03:00,
2013-06-11 16:05:00,60.4,56.6,29.65,WNW,292,5.4,10.1,87,0.00,,,0.39,WUHU21623XXSP,2013-06-11 20:05:00,
2013-06-11 16:07:00,60.4,56.6,29.65,NW,315,1.8,6.5,87,0.00,,,0.39,WUHU21623XXSP,2013-06-11 20:07:00,
2013-06-11 16:09:00,60.4,56.6,29.65,West,270,2.5,5.4,87,0.00,,,0.39,WUHU21623XXSP,2013-06-11 20:09:00,
2013-06-11 16:12:00,60.4,56.6,29.65,West,270,2.2,5.4,87,0.00,,,0.39,WUHU21623XXSP,2013-06-11 20:12:00,
2013-06-11 16:14:00,60.4,56.6,29.65,WNW,292,6.9,6.9,87,0.00,,,0.39,WUHU21623XXSP,2013-06-11 20:14:00,
2013-06-11 16:16:00,60.4,56.6,29.65,NW,315,5.8,6.9,87,0.00,,,0.39,WUHU21623XXSP,2013-06-11 20:16:00,
2013-06-11 16:18:00,60.4,56.6,29.65,West,270,0.0,6.9,87,0.00,,,0.39,WUHU21623XXSP,2013-06-11 20:18:00,
2013-06-11 16:20:00,60.4,56.6,29.65,WNW,292,6.3,6.9,87,0.00,,,0.39,WUHU21623XXSP,2013-06-11 20:20:00,
2013-06-11 16:22:00,60.4,56.6,29.65,WSW,247,1.6,6.9,87,0.00,,,0.39,WUHU21623XXSP,2013-06-11 20:22:00,
2013-06-11 16:24:00,60.4,56.6,29.65,West,270,10.3,10.3,87,0.00,,,0.39,WUHU21623XXSP,2013-06-11 20:24:00,
2013-06-11 16:27:00,60.4,56.6,29.65,West,270,1.6,10.3,87,0.00,,,0.39,WUHU21623XXSP,2013-06-11 20:27:00,
2013-06-11 16:29:00,60.4,56.6,29.65,WNW,292,5.6,10.3,87,0.00,,,0.39,WUHU21623XXSP,2013-06-11 20:29:00,
2013-06-11 16:31:00,60.4,56.6,29.65,WNW,292,0.0,10.3,87,0.00,,,0.39,WUHU21623XXSP,2013-06-11 20:31:00,
2013-06-11 16:33:00,60.4,56.6,29.65,NW,315,0.0,10.3,87,0.00,,,0.39,WUHU21623XXSP,2013-06-11 20:33:00,
2013-06-11 16:35:00,60.4,56.6,29.65,WNW,292,2.0,5.6,87,0.00,,,0.39,WUHU21623XXSP,2013-06-11 20:35:00,
2013-06-11 16:37:00,60.4,56.6,29.65,West,270,8.7,8.7,87,0.00,,,0.39,WUHU21623XXSP,2013-06-11 20:37:00,
2013-06-11 16:39:00,60.4,56.6,29.65,WNW,292,6.0,8.7,87,0.00,,,0.39,WUHU21623XXSP,2013-06-11 20:39:00,
2013-06-11 16:42:00,60.4,56.6,29.65,West,270,4.5,8.7,87,0.00,,,0.39,WUHU21623XXSP,2013-06-11 20:42:00,
2013-06-11 16:44:00,60.4,56.6,29.65,WNW,292,4.9,8.7,87,0.00,,,0.39,WUHU21623XXSP,2013-06-11 20:44:00,
2013-06-11 16:46:00,60.4,56.6,29.65,NNW,337,4.7,8.7,87,0.00,,,0.39,WUHU21623XXSP,2013-06-11 20:46:00,
2013-06-11 16:48:00,60.4,56.6,29.65,NW,315,7.2,7.2,87,0.00,,,0.39,WUHU21623XXSP,2013-06-11 20:48:00,
2013-06-11 16:50:00,60.4,56.6,29.65,West,270,0.7,7.2,87,0.00,,,0.39,WUHU21623XXSP,2013-06-11 20:50:00,
2013-06-11 16:52:00,60.4,56.6,29.65,WSW,247,7.8,7.8,87,0.00,,,0.39,WUHU21623XXSP,2013-06-11 20:52:00,
2013-06-11 16:54:00,60.4,56.6,29.65,WNW,292,6.9,7.8,87,0.00,,,0.39,WUHU21623XXSP,2013-06-11 20:54:00,
2013-06-11 16:57:00,60.4,56.6,29.65,WNW,292,1.8,7.8,87,0.00,,,0.39,WUHU21623XXSP,2013-06-11 20:57:00,
2013-06-11 16:59:00,60.4,56.6,29.65,West,270,7.2,7.8,87,0.00,,,0.39,WUHU21623XXSP,2013-06-11 20:59:00,
2013-06-11 17:01:00,60.4,56.6,29.65,NW,315,0.7,7.8,87,0.00,,,0.39,WUHU21623XXSP,2013-06-11 21:01:00,
2013-06-11 17:03:00,60.6,56.8,29.65,West,270,0.0,7.2,87,0.00,,,0.39,WUHU21623XXSP,2013-06-11 21:03:00,
2013-06-11 17:05:00,60.6,56.8,29.65,NW,315,6.9,7.2,87,0.00,,,0.39,WUHU21623XXSP,2013-06-11 21:05:00,
2013-06-11 17:07:00,60.6,56.8,29.65,WNW,292,1.8,7.2,87,0.00,,,0.39,WUHU21623XXSP,2013-06-11 21:07:00,
2013-06-11 17:09:00,60.6,56.8,29.65,NW,315,5.4,6.9,87,0.00,,,0.39,WUHU21623XXSP,2013-06-11 21:09:00,
2013-06-11 17:11:00,60.6,56.8,29.65,NW,315,9.6,9.6,87,0.00,,,0.39,WUHU21623XXSP,2013-06-11 21:11:00,
2013-06-11 17:14:00,60.6,56.8,29.65,West,270,5.6,9.6,87,0.00,,,0.39,WUHU21623XXSP,2013-06-11 21:14:00,
2013-06-11 17:16:00,60.6,56.8,29.65,North,0,4.9,9.6,87,0.00,,,0.39,WUHU21623XXSP,2013-06-11 21:16:00,
2013-06-11 17:18:00,61.0,57.1,29.65,West,270,6.9,9.6,87,0.00,,,0.39,WUHU21623XXSP,2013-06-11 21:18:00,
2013-06-11 17:20:00,60.8,56.9,29.65,West,270,0.0,9.6,87,0.00,,,0.39,WUHU21623XXSP,2013-06-11 21:20:00,
2013-06-11 17:22:00,60.8,56.9,29.65,West,270,0.0,6.9,87,0.00,,,0.39,WUHU21623XXSP,2013-06-11 21:22:00,
2013-06-11 17:24:00,60.8,56.9,29.65,NW,315,0.0,6.9,87,0.00,,,0.39,WUHU21623XXSP,2013-06-11 21:24:00,
2013-06-11 17:26:00,61.0,56.8,29.65,NW,315,8.7,8.7,86,0.00,,,0.39,WUHU21623XXSP,2013-06-11 21:26:00,
2013-06-11 17:29:00,61.0,56.8,29.65,WNW,292,4.3,8.7,86,0.00,,,0.39,WUHU21623XXSP,2013-06-11 21:29:00,
2013-06-11 17:31:00,61.3,57.1,29.65,West,270,0.0,8.7,86,0.00,,,0.39,WUHU21623XXSP,2013-06-11 21:31:00,
2013-06-11 17:33:00,61.5,57.3,29.65,West,270,2.0,8.7,86,0.00,,,0.39,WUHU21623XXSP,2013-06-11 21:33:00,
2013-06-11 17:35:00,61.5,57.3,29.65,WNW,292,0.4,8.7,86,0.02,,,0.39,WUHU21623XXSP,2013-06-11 21:35:00,
2013-06-11 17:37:00,61.7,57.5,29.65,WNW,292,5.6,5.6,86,0.02,,,0.41,WUHU21623XXSP,2013-06-11 21:37:00,
2013-06-11 17:39:00,61.5,57.3,29.65,WNW,292,0.0,5.6,86,0.02,,,0.41,WUHU21623XXSP,2013-06-11 21:39:00,
2013-06-11 17:42:00,61.5,57.3,29.65,WSW,247,4.3,5.6,86,0.02,,,0.41,WUHU21623XXSP,2013-06-11 21:42:00,
2013-06-11 17:44:00,61.5,57.3,29.65,NW,315,2.0,5.6,86,0.02,,,0.41,WUHU21623XXSP,2013-06-11 21:44:00,
2013-06-11 17:46:00,61.5,57.3,29.65,NNW,337,0.0,5.6,86,0.02,,,0.41,WUHU21623XXSP,2013-06-11 21:46:00,
2013-06-11 17:48:00,61.5,57.3,29.65,NW,315,0.4,4.3,86,0.02,,,0.41,WUHU21623XXSP,2013-06-11 21:48:00,
2013-06-11 17:50:00,61.3,57.1,29.65,NW,315,0.0,4.3,86,0.02,,,0.41,WUHU21623XXSP,2013-06-11 21:50:00,
2013-06-11 17:52:00,61.2,57.0,29.65,WNW,292,1.3,2.0,86,0.02,,,0.41,WUHU21623XXSP,2013-06-11 21:52:00,
2013-06-11 17:54:00,61.2,57.0,29.65,West,270,4.3,4.3,86,0.02,,,0.41,WUHU21623XXSP,2013-06-11 21:54:00,
2013-06-11 17:56:00,61.0,56.8,29.66,WNW,292,5.1,5.1,86,0.02,,,0.41,WUHU21623XXSP,2013-06-11 21:56:00,
2013-06-11 17:59:00,60.6,56.4,29.65,West,270,0.0,5.1,86,0.02,,,0.41,WUHU21623XXSP,2013-06-11 21:59:00,
2013-06-11 18:01:00,60.6,56.4,29.65,West,270,0.0,5.1,86,0.02,,,0.41,WUHU21623XXSP,2013-06-11 22:01:00,
2013-06-11 18:03:00,60.6,56.4,29.65,WNW,292,4.3,5.1,86,0.02,,,0.41,WUHU21623XXSP,2013-06-11 22:03:00,
2013-06-11 18:05:00,60.6,56.4,29.66,NNW,337,4.3,5.1,86,0.02,,,0.41,WUHU21623XXSP,2013-06-11 22:05:00,
2013-06-11 18:07:00,60.6,56.4,29.65,WNW,292,6.9,6.9,86,0.02,,,0.41,WUHU21623XXSP,2013-06-11 22:07:00,
2013-06-11 18:09:00,60.6,56.4,29.66,NW,315,3.6,6.9,86,0.02,,,0.41,WUHU21623XXSP,2013-06-11 22:09:00,
2013-06-11 18:12:00,60.6,56.4,29.65,NNW,337,6.0,6.9,86,0.02,,,0.41,WUHU21623XXSP,2013-06-11 22:12:00,
2013-06-11 18:14:00,60.6,56.4,29.65,WNW,292,1.3,6.9,86,0.02,,,0.41,WUHU21623XXSP,2013-06-11 22:14:00,
2013-06-11 18:16:00,61.0,56.8,29.65,West,270,0.0,6.9,86,0.02,,,0.41,WUHU21623XXSP,2013-06-11 22:16:00,
2013-06-11 18:18:00,60.8,56.6,29.66,WNW,292,9.8,9.8,86,0.02,,,0.41,WUHU21623XXSP,2013-06-11 22:18:00,
2013-06-11 18:20:00,60.6,56.4,29.66,WNW,292,0.0,9.8,86,0.02,,,0.41,WUHU21623XXSP,2013-06-11 22:20:00,
2013-06-11 18:22:00,60.6,56.4,29.66,WNW,292,0.0,9.8,86,0.02,,,0.41,WUHU21623XXSP,2013-06-11 22:22:00,
2013-06-11 18:24:00,60.6,56.4,29.66,West,270,0.0,9.8,86,0.02,,,0.41,WUHU21623XXSP,2013-06-11 22:24:00,
2013-06-11 18:26:00,60.6,56.4,29.66,WNW,292,0.0,9.8,86,0.02,,,0.41,WUHU21623XXSP,2013-06-11 22:26:00,
2013-06-11 18:29:00,60.6,56.4,29.66,West,270,6.0,6.0,86,0.02,,,0.41,WUHU21623XXSP,2013-06-11 22:29:00,
2013-06-11 18:31:00,60.4,56.3,29.66,NW,315,12.1,12.1,86,0.02,,,0.41,WUHU21623XXSP,2013-06-11 22:31:00,
2013-06-11 18:33:00,60.4,56.3,29.66,NW,315,6.0,12.1,86,0.02,,,0.41,WUHU21623XXSP,2013-06-11 22:33:00,
2013-06-11 18:35:00,60.1,55.9,29.66,NW,315,0.0,12.1,86,0.00,,,0.41,WUHU21623XXSP,2013-06-11 22:35:00,
2013-06-11 18:37:00,59.9,55.7,29.66,NW,315,0.0,12.1,86,0.00,,,0.41,WUHU21623XXSP,2013-06-11 22:37:00,
2013-06-11 18:39:00,59.9,55.7,29.66,NW,315,7.8,12.1,86,0.00,,,0.41,WUHU21623XXSP,2013-06-11 22:39:00,
2013-06-11 18:41:00,59.9,55.7,29.66,West,270,8.7,8.7,86,0.00,,,0.41,WUHU21623XXSP,2013-06-11 22:41:00,
2013-06-11 18:44:00,59.9,55.7,29.67,NNW,337,0.9,8.7,86,0.00,,,0.41,WUHU21623XXSP,2013-06-11 22:44:00,
2013-06-11 18:46:00,59.9,55.7,29.67,NNW,337,6.5,8.7,86,0.00,,,0.41,WUHU21623XXSP,2013-06-11 22:46:00,
2013-06-11 18:48:00,59.9,55.7,29.67,West,270,0.0,8.7,86,0.00,,,0.41,WUHU21623XXSP,2013-06-11 22:48:00,
2013-06-11 18:50:00,59.7,55.5,29.67,WNW,292,5.1,8.7,86,0.00,,,0.41,WUHU21623XXSP,2013-06-11 22:50:00,
2013-06-11 18:52:00,59.7,55.5,29.67,WNW,292,8.9,8.9,86,0.00,,,0.41,WUHU21623XXSP,2013-06-11 22:52:00,
2013-06-11 18:54:00,59.5,55.7,29.67,NW,315,6.7,8.9,87,0.00,,,0.41,WUHU21623XXSP,2013-06-11 22:54:00,
2013-06-11 18:56:00,59.5,55.7,29.67,WNW,292,5.1,8.9,87,0.00,,,0.41,WUHU21623XXSP,2013-06-11 22:56:00,
2013-06-11 18:59:00,59.5,55.7,29.68,WNW,292,5.8,8.9,87,0.00,,,0.41,WUHU21623XXSP,2013-06-11 22:59:00,
2013-06-11 19:01:00,59.5,55.7,29.68,West,270,3.6,8.9,87,0.00,,,0.41,WUHU21623XXSP,2013-06-11 23:01:00,
2013-06-11 19:03:00,59.4,55.5,29.68,West,270,0.0,6.7,87,0.00,,,0.41,WUHU21623XXSP,2013-06-11 23:03:00,
2013-06-11 19:05:00,59.0,54.8,29.68,NW,315,3.6,5.8,86,0.00,,,0.41,WUHU21623XXSP,2013-06-11 23:05:00,
2013-06-11 19:07:00,59.0,54.8,29.68,NW,315,2.9,5.8,86,0.00,,,0.41,WUHU21623XXSP,2013-06-11 23:07:00,
2013-06-11 19:09:00,58.8,54.6,29.68,NW,315,0.0,3.6,86,0.00,,,0.41,WUHU21623XXSP,2013-06-11 23:09:00,
2013-06-11 19:11:00,58.8,55.0,29.68,WNW,292,3.6,3.6,87,0.00,,,0.41,WUHU21623XXSP,2013-06-11 23:11:00,
2013-06-11 19:14:00,58.8,55.0,29.68,West,270,4.5,4.5,87,0.00,,,0.41,WUHU21623XXSP,2013-06-11 23:14:00,
2013-06-11 19:16:00,58.8,55.0,29.68,NW,315,0.9,4.5,87,0.00,,,0.41,WUHU21623XXSP,2013-06-11 23:16:00,
2013-06-11 19:18:00,58.8,55.0,29.68,NW,315,9.8,9.8,87,0.00,,,0.41,WUHU21623XXSP,2013-06-11 23:18:00,
2013-06-11 19:20:00,58.8,55.0,29.68,North,0,7.4,9.8,87,0.00,,,0.41,WUHU21623XXSP,2013-06-11 23:20:00,
2013-06-11 19:22:00,58.8,55.0,29.69,NW,315,2.7,9.8,87,0.00,,,0.41,WUHU21623XXSP,2013-06-11 23:22:00,
2013-06-11 19:24:00,58.8,55.0,29.68,West,270,0.0,9.8,87,0.00,,,0.41,WUHU21623XXSP,2013-06-11 23:24:00,
2013-06-11 19:26:00,58.8,55.0,29.69,WNW,292,9.6,9.8,87,0.00,,,0.41,WUHU21623XXSP,2013-06-11 23:26:00,
2013-06-11 19:29:00,58.8,55.0,29.69,NNW,337,2.0,9.6,87,0.00,,,0.41,WUHU21623XXSP,2013-06-11 23:29:00,
2013-06-11 19:31:00,58.8,55.0,29.69,WNW,292,1.3,9.6,87,0.00,,,0.41,WUHU21623XXSP,2013-06-11 23:31:00,
2013-06-11 19:33:00,58.6,54.5,29.69,NW,315,0.0,9.6,86,0.00,,,0.41,WUHU21623XXSP,2013-06-11 23:33:00,
2013-06-11 19:35:00,58.6,54.5,29.69,WNW,292,5.4,9.6,86,0.00,,,0.41,WUHU21623XXSP,2013-06-11 23:35:00,
2013-06-11 19:37:00,58.8,55.0,29.69,West,270,4.9,5.4,87,0.00,,,0.41,WUHU21623XXSP,2013-06-11 23:37:00,
2013-06-11 19:39:00,58.6,54.5,29.69,WNW,292,6.3,6.3,86,0.00,,,0.41,WUHU21623XXSP,2013-06-11 23:39:00,
2013-06-11 19:41:00,58.8,55.0,29.69,WSW,247,8.3,8.3,87,0.00,,,0.41,WUHU21623XXSP,2013-06-11 23:41:00,
2013-06-11 19:43:00,58.6,54.5,29.69,West,270,4.0,8.3,86,0.00,,,0.41,WUHU21623XXSP,2013-06-11 23:43:00,
2013-06-11 19:46:00,58.6,54.5,29.69,NW,315,8.1,8.3,86,0.00,,,0.41,WUHU21623XXSP,2013-06-11 23:46:00,
2013-06-11 19:48:00,58.8,55.0,29.69,NW,315,14.1,14.1,87,0.00,,,0.41,WUHU21623XXSP,2013-06-11 23:48:00,
2013-06-11 19:50:00,58.8,55.0,29.69,NW,315,5.6,14.1,87,0.00,,,0.41,WUHU21623XXSP,2013-06-11 23:50:00,
2013-06-11 19:52:00,58.6,54.5,29.69,NNW,337,4.7,14.1,86,0.00,,,0.41,WUHU21623XXSP,2013-06-11 23:52:00,
2013-06-11 19:54:00,58.8,55.0,29.69,WNW,292,4.3,14.1,87,0.00,,,0.41,WUHU21623XXSP,2013-06-11 23:54:00,
2013-06-11 19:56:00,58.8,55.0,29.69,West,270,0.0,14.1,87,0.00,,,0.41,WUHU21623XXSP,2013-06-11 23:56:00,
2013-06-11 19:58:00,58.6,54.5,29.69,NNW,337,5.6,5.6,86,0.00,,,0.41,WUHU21623XXSP,2013-06-11 23:58:00,
2013-06-11 20:01:00,58.6,54.5,29.69,NW,315,2.7,5.6,86,0.00,,,0.41,WUHU21623XXSP,2013-06-12 00:01:00,
2013-06-11 20:03:00,58.8,54.6,29.69,WNW,292,5.6,5.6,86,0.00,,,0.41,WUHU21623XXSP,2013-06-12 00:03:00,
2013-06-11 20:05:00,58.6,54.5,29.69,West,270,6.3,6.3,86,0.00,,,0.41,WUHU21623XXSP,2013-06-12 00:05:00,
2013-06-11 20:07:00,58.8,54.6,29.69,WNW,292,0.0,6.3,86,0.00,,,0.41,WUHU21623XXSP,2013-06-12 00:07:00,
2013-06-11 20:09:00,58.8,54.6,29.69,WNW,292,7.2,7.2,86,0.00,,,0.41,WUHU21623XXSP,2013-06-12 00:09:00,
2013-06-11 20:11:00,58.6,54.5,29.69,WNW,292,5.4,7.2,86,0.00,,,0.41,WUHU21623XXSP,2013-06-12 00:11:00,
2013-06-11 20:13:00,58.6,54.5,29.69,WNW,292,9.2,9.2,86,0.00,,,0.41,WUHU21623XXSP,2013-06-12 00:13:00,
2013-06-11 20:16:00,58.5,54.3,29.69,NNW,337,3.4,9.2,86,0.00,,,0.41,WUHU21623XXSP,2013-06-12 00:16:00,
2013-06-11 20:18:00,58.3,54.1,29.69,WNW,292,4.5,9.2,86,0.00,,,0.41,WUHU21623XXSP,2013-06-12 00:18:00,
2013-06-11 20:20:00,58.3,54.1,29.69,WNW,292,2.2,9.2,86,0.00,,,0.41,WUHU21623XXSP,2013-06-12 00:20:00,
2013-06-11 20:22:00,58.1,53.9,29.69,North,0,4.5,9.2,86,0.00,,,0.41,WUHU21623XXSP,2013-06-12 00:22:00,
2013-06-11 20:24:00,58.1,53.9,29.70,NW,315,6.9,6.9,86,0.00,,,0.41,WUHU21623XXSP,2013-06-12 00:24:00,
2013-06-11 20:26:00,58.1,53.9,29.70,WNW,292,8.3,8.3,86,0.00,,,0.41,WUHU21623XXSP,2013-06-12 00:26:00,
2013-06-11 20:28:00,57.9,53.7,29.69,WNW,292,6.0,8.3,86,0.00,,,0.41,WUHU21623XXSP,2013-06-12 00:28:00,
2013-06-11 20:31:00,57.9,53.7,29.70,West,270,0.0,8.3,86,0.00,,,0.41,WUHU21623XXSP,2013-06-12 00:31:00,
2013-06-11 20:33:00,57.9,53.7,29.70,NW,315,5.6,8.3,86,0.00,,,0.41,WUHU21623XXSP,2013-06-12 00:33:00,
2013-06-11 20:35:00,57.7,53.6,29.70,NNW,337,6.0,8.3,86,0.00,,,0.41,WUHU21623XXSP,2013-06-12 00:35:00,
2013-06-11 20:37:00,57.7,53.6,29.69,WNW,292,4.9,6.0,86,0.00,,,0.41,WUHU21623XXSP,2013-06-12 00:37:00,
2013-06-11 20:39:00,57.7,53.6,29.69,NNW,337,0.0,6.0,86,0.00,,,0.41,WUHU21623XXSP,2013-06-12 00:39:00,
2013-06-11 20:41:00,57.7,53.6,29.69,NW,315,0.0,6.0,86,0.00,,,0.41,WUHU21623XXSP,2013-06-12 00:41:00,
2013-06-11 20:43:00,57.6,53.4,29.69,WNW,292,3.1,6.0,86,0.00,,,0.41,WUHU21623XXSP,2013-06-12 00:43:00,
2013-06-11 20:46:00,57.6,53.4,29.69,North,0,0.0,4.9,86,0.00,,,0.41,WUHU21623XXSP,2013-06-12 00:46:00,
2013-06-11 20:48:00,57.4,53.2,29.69,WNW,292,5.4,5.4,86,0.00,,,0.41,WUHU21623XXSP,2013-06-12 00:48:00,
2013-06-11 20:50:00,57.4,53.2,29.70,NW,315,6.0,6.0,86,0.00,,,0.41,WUHU21623XXSP,2013-06-12 00:50:00,
2013-06-11 20:52:00,57.0,53.2,29.69,NW,315,1.1,6.0,87,0.00,,,0.41,WUHU21623XXSP,2013-06-12 00:52:00,
2013-06-11 20:54:00,57.0,53.2,29.70,WNW,292,3.6,6.0,87,0.00,,,0.41,WUHU21623XXSP,2013-06-12 00:54:00,
2013-06-11 20:56:00,57.0,53.2,29.70,NW,315,2.9,6.0,87,0.00,,,0.41,WUHU21623XXSP,2013-06-12 00:56:00,
2013-06-11 20:58:00,57.0,53.2,29.70,NNW,337,2.2,6.0,87,0.00,,,0.41,WUHU21623XXSP,2013-06-12 00:58:00,
2013-06-11 21:00:00,57.0,53.2,29.70,WNW,292,2.5,3.6,87,0.00,,,0.41,WUHU21623XXSP,2013-06-12 01:00:00,
2013-06-11 21:03:00,57.0,53.2,29.70,West,270,1.1,3.6,87,0.00,,,0.41,WUHU21623XXSP,2013-06-12 01:03:00,
2013-06-11 21:05:00,57.0,53.2,29.70,NW,315,1.6,2.9,87,0.00,,,0.41,WUHU21623XXSP,2013-06-12 01:05:00,
2013-06-11 21:07:00,57.0,53.2,29.71,WNW,292,1.3,2.5,87,0.00,,,0.41,WUHU21623XXSP,2013-06-12 01:07:00,
2013-06-11 21:09:00,57.0,53.2,29.71,WNW,292,0.0,2.5,87,0.00,,,0.41,WUHU21623XXSP,2013-06-12 01:09:00,
2013-06-11 21:11:00,57.0,53.2,29.71,NW,315,3.8,3.8,87,0.00,,,0.41,WUHU21623XXSP,2013-06-12 01:11:00,
2013-06-11 21:14:00,57.0,53.2,29.71,NW,315,0.7,3.8,87,0.00,,,0.41,WUHU21623XXSP,2013-06-12 01:14:00,
2013-06-11 21:16:00,56.8,53.0,29.71,WNW,292,3.6,3.8,87,0.00,,,0.41,WUHU21623XXSP,2013-06-12 01:16:00,
2013-06-11 21:18:00,56.8,53.0,29.71,NW,315,0.0,3.8,87,0.00,,,0.41,WUHU21623XXSP,2013-06-12 01:18:00,
2013-06-11 21:20:00,56.8,53.0,29.71,NW,315,4.0,4.0,87,0.00,,,0.41,WUHU21623XXSP,2013-06-12 01:20:00,
2013-06-11 21:22:00,56.8,53.0,29.71,NNW,337,0.0,4.0,87,0.00,,,0.41,WUHU21623XXSP,2013-06-12 01:22:00,
2013-06-11 21:24:00,56.5,52.6,29.71,NW,315,0.0,4.0,87,0.00,,,0.41,WUHU21623XXSP,2013-06-12 01:24:00,
2013-06-11 21:26:00,56.5,52.6,29.71,WNW,292,2.7,4.0,87,0.00,,,0.41,WUHU21623XXSP,2013-06-12 01:26:00,
2013-06-11 21:28:00,56.5,52.6,29.71,West,270,4.0,4.0,87,0.00,,,0.41,WUHU21623XXSP,2013-06-12 01:28:00,
2013-06-11 21:30:00,56.3,52.4,29.71,WSW,247,4.7,4.7,87,0.00,,,0.41,WUHU21623XXSP,2013-06-12 01:30:00,
2013-06-11 21:33:00,56.3,52.4,29.71,North,0,0.0,4.7,87,0.00,,,0.41,WUHU21623XXSP,2013-06-12 01:33:00,
2013-06-11 21:35:00,56.1,52.3,29.71,WNW,292,1.1,4.7,87,0.00,,,0.41,WUHU21623XXSP,2013-06-12 01:35:00,
2013-06-11 21:37:00,56.1,52.3,29.71,WNW,292,3.4,4.7,87,0.00,,,0.41,WUHU21623XXSP,2013-06-12 01:37:00,
2013-06-11 21:39:00,55.9,52.1,29.71,WNW,292,0.0,4.7,87,0.00,,,0.41,WUHU21623XXSP,2013-06-12 01:39:00,
2013-06-11 21:41:00,55.9,52.1,29.71,NNW,337,0.0,3.4,87,0.00,,,0.41,WUHU21623XXSP,2013-06-12 01:41:00,
2013-06-11 21:43:00,55.9,52.1,29.72,WNW,292,2.5,3.4,87,0.00,,,0.41,WUHU21623XXSP,2013-06-12 01:43:00,
2013-06-11 21:45:00,55.9,52.1,29.72,WNW,292,4.3,4.3,87,0.00,,,0.41,WUHU21623XXSP,2013-06-12 01:45:00,
2013-06-11 21:48:00,55.9,52.1,29.72,WNW,292,0.0,4.3,87,0.00,,,0.41,WUHU21623XXSP,2013-06-12 01:48:00,
2013-06-11 21:50:00,55.8,51.9,29.72,NNW,337,0.7,4.3,87,0.00,,,0.41,WUHU21623XXSP,2013-06-12 01:50:00,
2013-06-11 21:52:00,55.8,51.9,29.72,NNW,337,0.0,4.3,87,0.00,,,0.41,WUHU21623XXSP,2013-06-12 01:52:00,
2013-06-11 21:54:00,55.8,51.9,29.71,West,270,0.0,4.3,87,0.00,,,0.41,WUHU21623XXSP,2013-06-12 01:54:00,
2013-06-11 21:56:00,55.8,51.9,29.72,West,270,0.0,0.7,87,0.00,,,0.41,WUHU21623XXSP,2013-06-12 01:56:00,
2013-06-11 21:58:00,55.9,52.4,29.72,West,270,0.0,0.7,88,0.00,,,0.41,WUHU21623XXSP,2013-06-12 01:58:00,
2013-06-11 22:00:00,55.9,52.4,29.72,NW,315,2.0,2.0,88,0.00,,,0.41,WUHU21623XXSP,2013-06-12 02:00:00,
2013-06-11 22:03:00,55.9,52.1,29.72,WNW,292,2.2,2.2,87,0.00,,,0.41,WUHU21623XXSP,2013-06-12 02:03:00,
2013-06-11 22:05:00,55.9,52.4,29.72,WNW,292,4.7,4.7,88,0.00,,,0.41,WUHU21623XXSP,2013-06-12 02:05:00,
2013-06-11 22:07:00,55.9,52.4,29.72,WNW,292,0.0,4.7,88,0.00,,,0.41,WUHU21623XXSP,2013-06-12 02:07:00,
2013-06-11 22:09:00,55.9,52.4,29.72,WNW,292,0.0,4.7,88,0.00,,,0.41,WUHU21623XXSP,2013-06-12 02:09:00,
2013-06-11 22:11:00,55.9,52.4,29.72,NW,315,7.4,7.4,88,0.00,,,0.41,WUHU21623XXSP,2013-06-12 02:11:00,
2013-06-11 22:13:00,55.9,52.4,29.72,WNW,292,0.0,7.4,88,0.00,,,0.41,WUHU21623XXSP,2013-06-12 02:13:00,
2013-06-11 22:15:00,56.1,52.3,29.72,WNW,292,0.0,7.4,87,0.00,,,0.41,WUHU21623XXSP,2013-06-12 02:15:00,
2013-06-11 22:18:00,56.1,52.6,29.72,WNW,292,2.5,7.4,88,0.00,,,0.41,WUHU21623XXSP,2013-06-12 02:18:00,
2013-06-11 22:20:00,56.1,52.6,29.72,WNW,292,0.0,7.4,88,0.00,,,0.41,WUHU21623XXSP,2013-06-12 02:20:00,
2013-06-11 22:22:00,56.1,52.6,29.72,WNW,292,1.6,2.5,88,0.00,,,0.41,WUHU21623XXSP,2013-06-12 02:22:00,
2013-06-11 22:24:00,56.1,52.6,29.72,WNW,292,0.0,2.5,88,0.00,,,0.41,WUHU21623XXSP,2013-06-12 02:24:00,
2013-06-11 22:26:00,56.1,52.3,29.72,WNW,292,0.0,2.5,87,0.00,,,0.41,WUHU21623XXSP,2013-06-12 02:26:00,
2013-06-11 22:28:00,56.1,52.6,29.72,North,0,5.4,5.4,88,0.00,,,0.41,WUHU21623XXSP,2013-06-12 02:28:00,
2013-06-11 22:30:00,56.1,52.6,29.72,NW,315,0.0,5.4,88,0.00,,,0.41,WUHU21623XXSP,2013-06-12 02:30:00,
2013-06-11 22:33:00,56.1,52.6,29.72,NW,315,0.9,5.4,88,0.00,,,0.41,WUHU21623XXSP,2013-06-12 02:33:00,
2013-06-11 22:35:00,56.1,52.6,29.72,NNW,337,0.0,5.4,88,0.00,,,0.41,WUHU21623XXSP,2013-06-12 02:35:00,
2013-06-11 22:37:00,56.1,52.6,29.72,NW,315,3.4,5.4,88,0.00,,,0.41,WUHU21623XXSP,2013-06-12 02:37:00,
2013-06-11 22:39:00,56.1,52.3,29.72,WNW,292,5.6,5.6,87,0.00,,,0.41,WUHU21623XXSP,2013-06-12 02:39:00,
2013-06-11 22:41:00,56.1,52.6,29.72,NW,315,0.4,5.6,88,0.00,,,0.41,WUHU21623XXSP,2013-06-12 02:41:00,
2013-06-11 22:43:00,56.1,52.3,29.72,WNW,292,3.8,5.6,87,0.00,,,0.41,WUHU21623XXSP,2013-06-12 02:43:00,
2013-06-11 22:45:00,55.9,52.1,29.72,WNW,292,0.0,5.6,87,0.00,,,0.41,WUHU21623XXSP,2013-06-12 02:45:00,
2013-06-11 22:48:00,55.9,52.1,29.72,West,270,3.6,5.6,87,0.00,,,0.41,WUHU21623XXSP,2013-06-12 02:48:00,
2013-06-11 22:50:00,55.9,52.4,29.72,WNW,292,0.0,3.8,88,0.00,,,0.41,WUHU21623XXSP,2013-06-12 02:50:00,
2013-06-11 22:52:00,55.9,52.4,29.72,NW,315,0.9,3.8,88,0.00,,,0.41,WUHU21623XXSP,2013-06-12 02:52:00,
2013-06-11 22:54:00,55.8,52.2,29.72,WNW,292,0.0,3.6,88,0.00,,,0.41,WUHU21623XXSP,2013-06-12 02:54:00,
2013-06-11 22:56:00,55.8,52.2,29.73,WNW,292,2.5,3.6,88,0.00,,,0.41,WUHU21623XXSP,2013-06-12 02:56:00,
2013-06-11 22:58:00,55.8,52.2,29.72,WNW,292,6.3,6.3,88,0.00,,,0.41,WUHU21623XXSP,2013-06-12 02:58:00,
2013-06-11 23:00:00,55.8,52.2,29.72,NW,315,2.0,6.3,88,0.00,,,0.41,WUHU21623XXSP,2013-06-12 03:00:00,
2013-06-11 23:03:00,55.8,52.2,29.72,West,270,3.4,6.3,88,0.00,,,0.41,WUHU21623XXSP,2013-06-12 03:03:00,
2013-06-11 23:05:00,55.8,52.2,29.72,NW,315,3.8,6.3,88,0.00,,,0.41,WUHU21623XXSP,2013-06-12 03:05:00,
2013-06-11 23:07:00,55.8,52.2,29.73,WNW,292,0.0,6.3,88,0.00,,,0.41,WUHU21623XXSP,2013-06-12 03:07:00,
2013-06-11 23:09:00,55.8,52.2,29.73,WNW,292,0.0,3.8,88,0.00,,,0.41,WUHU21623XXSP,2013-06-12 03:09:00,
2013-06-11 23:11:00,55.8,52.2,29.73,NNW,337,2.0,3.8,88,0.00,,,0.41,WUHU21623XXSP,2013-06-12 03:11:00,
2013-06-11 23:13:00,55.8,52.2,29.73,NNW,337,0.0,3.8,88,0.00,,,0.41,WUHU21623XXSP,2013-06-12 03:13:00,
2013-06-11 23:15:00,55.8,52.2,29.73,NW,315,6.5,6.5,88,0.00,,,0.41,WUHU21623XXSP,2013-06-12 03:15:00,
2013-06-11 23:18:00,55.8,52.2,29.73,NW,315,2.2,6.5,88,0.00,,,0.41,WUHU21623XXSP,2013-06-12 03:18:00,
2013-06-11 23:20:00,55.8,52.2,29.73,NW,315,9.6,9.6,88,0.00,,,0.41,WUHU21623XXSP,2013-06-12 03:20:00,
2013-06-11 23:22:00,55.8,52.2,29.73,NNW,337,0.0,9.6,88,0.00,,,0.41,WUHU21623XXSP,2013-06-12 03:22:00,
2013-06-11 23:24:00,55.8,52.2,29.73,NNW,337,1.1,9.6,88,0.00,,,0.41,WUHU21623XXSP,2013-06-12 03:24:00,
2013-06-11 23:26:00,55.8,52.2,29.73,North,0,1.1,9.6,88,0.00,,,0.41,WUHU21623XXSP,2013-06-12 03:26:00,
2013-06-11 23:28:00,55.8,52.2,29.73,North,0,0.9,9.6,88,0.00,,,0.41,WUHU21623XXSP,2013-06-12 03:28:00,
2013-06-11 23:30:00,55.8,52.2,29.73,NW,315,0.0,1.1,88,0.00,,,0.41,WUHU21623XXSP,2013-06-12 03:30:00,
2013-06-11 23:32:00,55.6,52.1,29.73,NW,315,0.0,1.1,88,0.00,,,0.41,WUHU21623XXSP,2013-06-12 03:32:00,
2013-06-11 23:35:00,55.6,52.1,29.73,NW,315,0.0,1.1,88,0.00,,,0.41,WUHU21623XXSP,2013-06-12 03:35:00,
2013-06-11 23:37:00,55.6,52.1,29.73,WNW,292,3.1,3.1,88,0.00,,,0.41,WUHU21623XXSP,2013-06-12 03:37:00,
2013-06-11 23:39:00,55.6,52.1,29.73,WNW,292,0.0,3.1,88,0.00,,,0.41,WUHU21623XXSP,2013-06-12 03:39:00,
2013-06-11 23:41:00,55.6,52.1,29.73,NW,315,3.6,3.6,88,0.00,,,0.41,WUHU21623XXSP,2013-06-12 03:41:00,
2013-06-11 23:43:00,55.6,52.1,29.74,WNW,292,0.0,3.6,88,0.00,,,0.41,WUHU21623XXSP,2013-06-12 03:43:00,
2013-06-11 23:45:00,55.4,51.9,29.74,WNW,292,5.6,5.6,88,0.00,,,0.41,WUHU21623XXSP,2013-06-12 03:45:00,
2013-06-11 23:47:00,55.4,51.9,29.74,WNW,292,1.8,5.6,88,0.00,,,0.41,WUHU21623XXSP,2013-06-12 03:47:00,
2013-06-11 23:50:00,55.6,52.1,29.74,WNW,292,0.0,5.6,88,0.00,,,0.41,WUHU21623XXSP,2013-06-12 03:50:00,
2013-06-11 23:52:00,55.6,52.1,29.74,WNW,292,1.8,5.6,88,0.00,,,0.41,WUHU21623XXSP,2013-06-12 03:52:00,
2013-06-11 23:54:00,55.6,52.1,29.74,WNW,292,2.9,5.6,88,0.00,,,0.41,WUHU21623XXSP,2013-06-12 03:54:00,
2013-06-11 23:56:00,55.6,52.1,29.73,West,270,0.0,2.9,88,0.00,,,0.41,WUHU21623XXSP,2013-06-12 03:56:00,
2013-06-11 23:58:00,55.6,52.1,29.74,West,270,0.0,2.9,88,0.00,,,0.41,WUHU21623XXSP,2013-06-12 03:58:00,